Time,TemperatureF,DewpointF,PressureIn,WindDirection,WindDirectionDegrees,WindSpeedMPH,WindSpeedGustMPH,Humidity,HourlyPrecipIn,Conditions,Clouds,dailyrainin,SoftwareType,DateUTC
2013-01-29 00:00:00,64.3,59.4,30.16,ENE,58,0.0,4.0,84,0.00,,---,0.00,VWS V14.01,2013-01-29 05:00:00,
2013-01-29 00:02:00,64.3,59.4,30.16,ENE,58,0.0,4.0,84,0.00,,---,0.00,VWS V14.01,2013-01-29 05:02:00,
2013-01-29 00:03:00,64.3,59.4,30.16,ENE,58,0.0,4.0,84,0.00,,---,0.00,VWS V14.01,2013-01-29 05:03:00,
2013-01-29 00:06:00,64.2,59.3,30.16,ENE,58,0.0,0.0,84,0.00,,---,0.00,VWS V14.01,2013-01-29 05:06:00,
2013-01-29 00:07:00,64.2,59.3,30.16,ENE,58,0.0,0.0,84,0.00,,---,0.00,VWS V14.01,2013-01-29 05:07:00,
2013-01-29 00:08:00,64.2,59.3,30.16,ENE,58,0.0,0.0,84,0.00,,---,0.00,VWS V14.01,2013-01-29 05:08:00,
2013-01-29 00:11:00,64.0,59.4,30.16,ENE,58,0.0,0.0,85,0.00,,---,0.00,VWS V14.01,2013-01-29 05:11:00,
2013-01-29 00:12:00,64.0,59.4,30.16,ENE,58,0.0,0.0,85,0.00,,---,0.00,VWS V14.01,2013-01-29 05:12:00,
2013-01-29 00:13:00,64.0,59.4,30.16,ENE,58,0.0,0.0,85,0.00,,---,0.00,VWS V14.01,2013-01-29 05:13:00,
2013-01-29 00:16:00,63.9,59.3,30.16,ENE,58,0.0,0.0,85,0.00,,---,0.00,VWS V14.01,2013-01-29 05:16:00,
2013-01-29 00:17:00,63.9,59.3,30.15,ENE,58,0.0,0.0,85,0.00,,---,0.00,VWS V14.01,2013-01-29 05:17:00,
2013-01-29 00:18:00,63.7,59.1,30.15,ENE,58,0.0,0.0,85,0.00,,---,0.00,VWS V14.01,2013-01-29 05:18:00,
2013-01-29 00:21:00,63.7,59.1,30.15,ENE,58,0.0,0.0,85,0.00,,---,0.00,VWS V14.01,2013-01-29 05:21:00,
2013-01-29 00:22:00,63.7,59.1,30.15,ENE,58,0.0,0.0,85,0.00,,---,0.00,VWS V14.01,2013-01-29 05:22:00,
2013-01-29 00:23:00,63.7,59.1,30.15,ENE,58,0.0,0.0,85,0.00,,---,0.00,VWS V14.01,2013-01-29 05:23:00,
2013-01-29 00:26:00,63.5,58.9,30.15,ENE,58,0.0,0.0,85,0.00,,---,0.00,VWS V14.01,2013-01-29 05:26:00,
2013-01-29 00:28:00,63.5,59.2,30.15,ENE,58,0.0,0.0,86,0.00,,---,0.00,VWS V14.01,2013-01-29 05:28:00,
2013-01-29 00:31:00,63.4,58.8,30.15,ENE,58,0.0,0.0,85,0.00,,---,0.00,VWS V14.01,2013-01-29 05:31:00,
2013-01-29 00:33:00,63.4,59.2,30.15,ENE,58,0.0,0.0,86,0.00,,---,0.00,VWS V14.01,2013-01-29 05:33:00,
2013-01-29 00:36:00,63.2,59.0,30.15,ENE,58,0.0,0.0,86,0.00,,---,0.00,VWS V14.01,2013-01-29 05:36:00,
2013-01-29 00:38:00,63.2,59.0,30.15,ENE,58,0.0,0.0,86,0.00,,---,0.00,VWS V14.01,2013-01-29 05:38:00,
2013-01-29 00:39:00,63.2,59.0,30.15,ENE,58,0.0,0.0,86,0.00,,---,0.00,VWS V14.01,2013-01-29 05:39:00,
2013-01-29 00:41:00,63.2,59.3,30.15,ENE,58,0.0,1.0,87,0.00,,---,0.00,VWS V14.01,2013-01-29 05:41:00,
2013-01-29 00:43:00,63.1,59.2,30.15,ENE,58,0.0,1.0,87,0.00,,---,0.00,VWS V14.01,2013-01-29 05:43:00,
2013-01-29 00:44:00,63.1,59.2,30.15,ENE,58,0.0,1.0,87,0.00,,---,0.00,VWS V14.01,2013-01-29 05:44:00,
2013-01-29 00:46:00,63.1,59.2,30.15,ENE,58,0.0,1.0,87,0.00,,---,0.00,VWS V14.01,2013-01-29 05:46:00,
2013-01-29 00:48:00,63.1,59.2,30.14,ENE,58,0.0,1.0,87,0.00,,---,0.00,VWS V14.01,2013-01-29 05:48:00,
2013-01-29 00:49:00,63.1,59.2,30.14,ENE,58,0.0,1.0,87,0.00,,---,0.00,VWS V14.01,2013-01-29 05:49:00,
2013-01-29 00:51:00,63.1,59.2,30.14,ENE,58,0.0,1.0,87,0.00,,---,0.00,VWS V14.01,2013-01-29 05:51:00,
2013-01-29 00:53:00,63.1,59.2,30.14,ENE,58,0.0,1.0,87,0.00,,---,0.00,VWS V14.01,2013-01-29 05:53:00,
2013-01-29 00:54:00,63.1,59.2,30.14,ENE,58,0.0,1.0,87,0.00,,---,0.00,VWS V14.01,2013-01-29 05:54:00,
2013-01-29 00:56:00,63.1,59.2,30.14,ENE,58,0.0,1.0,87,0.00,,---,0.00,VWS V14.01,2013-01-29 05:56:00,
2013-01-29 00:58:00,63.1,59.2,30.14,ENE,58,0.0,1.0,87,0.00,,---,0.00,VWS V14.01,2013-01-29 05:58:00,
2013-01-29 00:59:00,63.1,59.2,30.14,ENE,58,0.0,1.0,87,0.00,,---,0.00,VWS V14.01,2013-01-29 05:59:00,
2013-01-29 01:00:00,62.9,59.3,30.14,ENE,58,0.0,1.0,88,0.00,,---,0.00,VWS V14.01,2013-01-29 06:00:00,
2013-01-29 01:01:00,63.1,59.2,30.14,ENE,58,0.0,1.0,87,0.00,,---,0.00,VWS V14.01,2013-01-29 06:01:00,
2013-01-29 01:03:00,62.9,59.3,30.14,ENE,58,0.0,1.0,88,0.00,,---,0.00,VWS V14.01,2013-01-29 06:03:00,
2013-01-29 01:04:00,62.9,59.3,30.14,ENE,58,0.0,0.0,88,0.00,,---,0.00,VWS V14.01,2013-01-29 06:04:00,
2013-01-29 01:06:00,62.9,59.3,30.14,ENE,58,0.0,0.0,88,0.00,,---,0.00,VWS V14.01,2013-01-29 06:06:00,
2013-01-29 01:08:00,62.9,59.3,30.14,ENE,58,0.0,0.0,88,0.00,,---,0.00,VWS V14.01,2013-01-29 06:08:00,
2013-01-29 01:09:00,62.9,59.3,30.14,ENE,58,0.0,0.0,88,0.00,,---,0.00,VWS V14.01,2013-01-29 06:09:00,
2013-01-29 01:11:00,62.7,59.1,30.14,ENE,58,0.0,0.0,88,0.00,,---,0.00,VWS V14.01,2013-01-29 06:11:00,
2013-01-29 01:13:00,62.7,59.1,30.14,ENE,58,0.0,0.0,88,0.00,,---,0.00,VWS V14.01,2013-01-29 06:13:00,
2013-01-29 01:14:00,62.7,59.1,30.14,ENE,58,0.0,0.0,88,0.00,,---,0.00,VWS V14.01,2013-01-29 06:14:00,
2013-01-29 01:16:00,62.7,59.1,30.14,ENE,58,0.0,0.0,88,0.00,,---,0.00,VWS V14.01,2013-01-29 06:16:00,
2013-01-29 01:18:00,62.6,59.0,30.14,ENE,58,0.0,0.0,88,0.00,,---,0.00,VWS V14.01,2013-01-29 06:18:00,
2013-01-29 01:19:00,62.6,59.0,30.14,ENE,58,0.0,0.0,88,0.00,,---,0.00,VWS V14.01,2013-01-29 06:19:00,
2013-01-29 01:21:00,62.6,59.0,30.14,ENE,58,0.0,0.0,88,0.00,,---,0.00,VWS V14.01,2013-01-29 06:21:00,
2013-01-29 01:23:00,62.6,59.3,30.14,ENE,58,0.0,0.0,89,0.00,,---,0.00,VWS V14.01,2013-01-29 06:23:00,
2013-01-29 01:24:00,62.6,59.3,30.14,ENE,58,0.0,0.0,89,0.00,,---,0.00,VWS V14.01,2013-01-29 06:24:00,
2013-01-29 01:26:00,62.6,59.3,30.14,ENE,58,0.0,0.0,89,0.00,,---,0.00,VWS V14.01,2013-01-29 06:26:00,
2013-01-29 01:28:00,62.6,59.3,30.14,ENE,58,0.0,0.0,89,0.00,,---,0.00,VWS V14.01,2013-01-29 06:28:00,
2013-01-29 01:29:00,62.6,59.3,30.14,ENE,58,0.0,0.0,89,0.00,,---,0.00,VWS V14.01,2013-01-29 06:29:00,
2013-01-29 01:31:00,62.6,59.3,30.14,ENE,58,0.0,0.0,89,0.00,,---,0.00,VWS V14.01,2013-01-29 06:31:00,
2013-01-29 01:33:00,62.6,59.3,30.13,ENE,58,0.0,0.0,89,0.00,,---,0.00,VWS V14.01,2013-01-29 06:33:00,
2013-01-29 01:34:00,62.6,59.3,30.13,ENE,58,0.0,0.0,89,0.00,,---,0.00,VWS V14.01,2013-01-29 06:34:00,
2013-01-29 01:36:00,62.6,59.3,30.13,ENE,58,0.0,0.0,89,0.00,,---,0.00,VWS V14.01,2013-01-29 06:36:00,
2013-01-29 01:38:00,62.6,59.3,30.13,ENE,58,0.0,0.0,89,0.00,,---,0.00,VWS V14.01,2013-01-29 06:38:00,
2013-01-29 01:39:00,62.6,59.3,30.13,ENE,58,0.0,0.0,89,0.00,,---,0.00,VWS V14.01,2013-01-29 06:39:00,
2013-01-29 01:41:00,62.6,59.3,30.13,ENE,58,0.0,0.0,89,0.00,,---,0.00,VWS V14.01,2013-01-29 06:41:00,
2013-01-29 01:43:00,62.6,59.3,30.13,ENE,58,0.0,0.0,89,0.00,,---,0.00,VWS V14.01,2013-01-29 06:43:00,
2013-01-29 01:44:00,62.4,59.1,30.13,ENE,58,0.0,0.0,89,0.00,,---,0.00,VWS V14.01,2013-01-29 06:44:00,
2013-01-29 01:46:00,62.4,59.1,30.13,ENE,58,0.0,0.0,89,0.00,,---,0.00,VWS V14.01,2013-01-29 06:46:00,
2013-01-29 01:48:00,62.4,59.1,30.13,ENE,58,0.0,0.0,89,0.00,,---,0.00,VWS V14.01,2013-01-29 06:48:00,
2013-01-29 01:49:00,62.4,59.1,30.13,ENE,58,0.0,0.0,89,0.00,,---,0.00,VWS V14.01,2013-01-29 06:49:00,
2013-01-29 01:51:00,62.4,59.4,30.13,ENE,58,0.0,0.0,90,0.00,,---,0.00,VWS V14.01,2013-01-29 06:51:00,
2013-01-29 01:53:00,62.4,59.4,30.13,ENE,58,0.0,0.0,90,0.00,,---,0.00,VWS V14.01,2013-01-29 06:53:00,
2013-01-29 01:54:00,62.4,59.4,30.13,ENE,58,0.0,0.0,90,0.00,,---,0.00,VWS V14.01,2013-01-29 06:54:00,
2013-01-29 01:56:00,62.3,59.3,30.13,ENE,58,0.0,0.0,90,0.00,,---,0.00,VWS V14.01,2013-01-29 06:56:00,
2013-01-29 01:58:00,62.3,59.3,30.13,ENE,58,0.0,0.0,90,0.00,,---,0.00,VWS V14.01,2013-01-29 06:58:00,
2013-01-29 01:59:00,62.3,59.3,30.13,ENE,58,0.0,0.0,90,0.00,,---,0.00,VWS V14.01,2013-01-29 06:59:00,
2013-01-29 02:00:00,62.0,59.0,30.13,ENE,58,0.0,0.0,90,0.00,,---,0.00,VWS V14.01,2013-01-29 07:00:00,
2013-01-29 02:01:00,62.1,59.1,30.13,ENE,58,0.0,0.0,90,0.00,,---,0.00,VWS V14.01,2013-01-29 07:01:00,
2013-01-29 02:03:00,62.0,59.0,30.13,ENE,58,0.0,0.0,90,0.00,,---,0.00,VWS V14.01,2013-01-29 07:03:00,
2013-01-29 02:04:00,62.0,59.0,30.13,ENE,58,0.0,0.0,90,0.00,,---,0.00,VWS V14.01,2013-01-29 07:04:00,
2013-01-29 02:06:00,61.8,58.8,30.13,ENE,58,0.0,0.0,90,0.00,,---,0.00,VWS V14.01,2013-01-29 07:06:00,
2013-01-29 02:08:00,61.8,58.8,30.13,ENE,58,0.0,0.0,90,0.00,,---,0.00,VWS V14.01,2013-01-29 07:08:00,
2013-01-29 02:09:00,61.8,58.8,30.13,ENE,58,0.0,0.0,90,0.00,,---,0.00,VWS V14.01,2013-01-29 07:09:00,
2013-01-29 02:10:00,61.8,58.8,30.13,ENE,58,0.0,0.0,90,0.00,,---,0.00,VWS V14.01,2013-01-29 07:10:00,
2013-01-29 02:11:00,61.8,58.8,30.13,ENE,58,0.0,0.0,90,0.00,,---,0.00,VWS V14.01,2013-01-29 07:11:00,
2013-01-29 02:13:00,61.6,58.6,30.13,ENE,58,0.0,0.0,90,0.00,,---,0.00,VWS V14.01,2013-01-29 07:13:00,
2013-01-29 02:14:00,61.6,58.6,30.13,ENE,58,0.0,0.0,90,0.00,,---,0.00,VWS V14.01,2013-01-29 07:14:00,
2013-01-29 02:15:00,61.6,58.6,30.13,ENE,58,0.0,0.0,90,0.00,,---,0.00,VWS V14.01,2013-01-29 07:15:00,
2013-01-29 02:16:00,61.5,58.8,30.13,ENE,58,0.0,0.0,91,0.00,,---,0.00,VWS V14.01,2013-01-29 07:16:00,
2013-01-29 02:18:00,61.5,58.8,30.13,ENE,58,0.0,0.0,91,0.00,,---,0.00,VWS V14.01,2013-01-29 07:18:00,
2013-01-29 02:19:00,61.5,58.8,30.13,ENE,58,0.0,0.0,91,0.00,,---,0.00,VWS V14.01,2013-01-29 07:19:00,
2013-01-29 02:20:00,61.5,58.8,30.13,ENE,58,0.0,0.0,91,0.00,,---,0.00,VWS V14.01,2013-01-29 07:20:00,
2013-01-29 02:21:00,61.5,58.8,30.13,ENE,58,0.0,0.0,91,0.00,,---,0.00,VWS V14.01,2013-01-29 07:21:00,
2013-01-29 02:23:00,61.3,58.7,30.13,ENE,58,0.0,0.0,91,0.00,,---,0.00,VWS V14.01,2013-01-29 07:23:00,
2013-01-29 02:25:00,61.3,58.7,30.13,ENE,58,0.0,0.0,91,0.00,,---,0.00,VWS V14.01,2013-01-29 07:25:00,
2013-01-29 02:26:00,61.2,58.6,30.13,ENE,58,0.0,0.0,91,0.00,,---,0.00,VWS V14.01,2013-01-29 07:26:00,
2013-01-29 02:28:00,61.0,58.4,30.13,ENE,58,0.0,0.0,91,0.00,,---,0.00,VWS V14.01,2013-01-29 07:28:00,
2013-01-29 02:30:00,60.9,58.3,30.13,ENE,58,0.0,0.0,91,0.00,,---,0.00,VWS V14.01,2013-01-29 07:30:00,
2013-01-29 02:31:00,60.7,58.1,30.13,ENE,58,0.0,0.0,91,0.00,,---,0.00,VWS V14.01,2013-01-29 07:31:00,
2013-01-29 02:33:00,60.7,58.1,30.12,ENE,58,0.0,0.0,91,0.00,,---,0.00,VWS V14.01,2013-01-29 07:33:00,
2013-01-29 02:35:00,60.7,58.1,30.12,ENE,58,0.0,0.0,91,0.00,,---,0.00,VWS V14.01,2013-01-29 07:35:00,
2013-01-29 02:36:00,60.7,58.4,30.12,ENE,58,0.0,0.0,92,0.00,,---,0.00,VWS V14.01,2013-01-29 07:36:00,
2013-01-29 02:38:00,60.7,58.4,30.12,ENE,58,0.0,0.0,92,0.00,,---,0.00,VWS V14.01,2013-01-29 07:38:00,
2013-01-29 02:40:00,60.7,58.4,30.12,ENE,58,0.0,0.0,92,0.00,,---,0.00,VWS V14.01,2013-01-29 07:40:00,
2013-01-29 02:42:00,60.7,58.4,30.12,ENE,58,0.0,0.0,92,0.00,,---,0.00,VWS V14.01,2013-01-29 07:42:00,
2013-01-29 02:43:00,60.7,58.4,30.12,ENE,58,0.0,0.0,92,0.00,,---,0.00,VWS V14.01,2013-01-29 07:43:00,
2013-01-29 02:45:00,60.7,58.4,30.12,ENE,58,0.0,0.0,92,0.00,,---,0.00,VWS V14.01,2013-01-29 07:45:00,
2013-01-29 02:47:00,60.5,58.2,30.12,ENE,58,0.0,0.0,92,0.00,,---,0.00,VWS V14.01,2013-01-29 07:47:00,
2013-01-29 02:48:00,60.5,58.2,30.12,ENE,58,0.0,0.0,92,0.00,,---,0.00,VWS V14.01,2013-01-29 07:48:00,
2013-01-29 02:50:00,60.5,58.2,30.12,ENE,58,0.0,0.0,92,0.00,,---,0.00,VWS V14.01,2013-01-29 07:50:00,
2013-01-29 02:52:00,60.4,58.4,30.12,ENE,58,0.0,0.0,93,0.00,,---,0.00,VWS V14.01,2013-01-29 07:52:00,
2013-01-29 02:54:00,60.5,58.5,30.12,ENE,58,0.0,0.0,93,0.00,,---,0.00,VWS V14.01,2013-01-29 07:54:00,
2013-01-29 02:55:00,60.5,58.5,30.12,ENE,58,0.0,1.0,93,0.00,,---,0.00,VWS V14.01,2013-01-29 07:55:00,
2013-01-29 02:57:00,60.5,58.5,30.12,ENE,58,0.0,1.0,93,0.00,,---,0.00,VWS V14.01,2013-01-29 07:57:00,
2013-01-29 02:59:00,60.5,58.5,30.12,ENE,58,0.0,1.0,93,0.00,,---,0.00,VWS V14.01,2013-01-29 07:59:00,
2013-01-29 03:00:00,60.5,58.5,30.12,ENE,58,0.0,1.0,93,0.00,,---,0.00,VWS V14.01,2013-01-29 08:00:00,
2013-01-29 03:02:00,60.5,58.5,30.12,ENE,58,0.0,1.0,93,0.00,,---,0.00,VWS V14.01,2013-01-29 08:02:00,
2013-01-29 03:04:00,60.5,58.5,30.11,ENE,58,0.0,0.0,93,0.00,,---,0.00,VWS V14.01,2013-01-29 08:04:00,
2013-01-29 03:05:00,60.5,58.5,30.11,ENE,58,0.0,0.0,93,0.00,,---,0.00,VWS V14.01,2013-01-29 08:05:00,
2013-01-29 03:07:00,60.4,58.4,30.11,ENE,58,0.0,0.0,93,0.00,,---,0.00,VWS V14.01,2013-01-29 08:07:00,
2013-01-29 03:09:00,60.4,58.4,30.11,ENE,58,0.0,0.0,93,0.00,,---,0.00,VWS V14.01,2013-01-29 08:09:00,
2013-01-29 03:10:00,60.4,58.4,30.11,ENE,58,0.0,0.0,93,0.00,,---,0.00,VWS V14.01,2013-01-29 08:10:00,
2013-01-29 03:12:00,60.4,58.7,30.11,ENE,58,0.0,0.0,94,0.00,,---,0.00,VWS V14.01,2013-01-29 08:12:00,
2013-01-29 03:14:00,60.4,58.7,30.11,ENE,58,0.0,0.0,94,0.00,,---,0.00,VWS V14.01,2013-01-29 08:14:00,
2013-01-29 03:15:00,60.4,58.7,30.11,ENE,58,0.0,0.0,94,0.00,,---,0.00,VWS V14.01,2013-01-29 08:15:00,
2013-01-29 03:17:00,60.4,58.7,30.11,ENE,58,0.0,0.0,94,0.00,,---,0.00,VWS V14.01,2013-01-29 08:17:00,
2013-01-29 03:19:00,60.4,58.7,30.11,ENE,58,0.0,0.0,94,0.00,,---,0.00,VWS V14.01,2013-01-29 08:19:00,
2013-01-29 03:20:00,60.4,58.7,30.11,ENE,58,0.0,0.0,94,0.00,,---,0.00,VWS V14.01,2013-01-29 08:20:00,
2013-01-29 03:22:00,60.2,58.5,30.11,ENE,58,0.0,0.0,94,0.00,,---,0.00,VWS V14.01,2013-01-29 08:22:00,
2013-01-29 03:24:00,60.2,58.5,30.11,ENE,58,0.0,0.0,94,0.00,,---,0.00,VWS V14.01,2013-01-29 08:24:00,
2013-01-29 03:25:00,60.2,58.5,30.11,ENE,58,0.0,0.0,94,0.00,,---,0.00,VWS V14.01,2013-01-29 08:25:00,
2013-01-29 03:27:00,60.2,58.5,30.11,ENE,58,0.0,0.0,94,0.00,,---,0.00,VWS V14.01,2013-01-29 08:27:00,
2013-01-29 03:29:00,60.2,58.5,30.11,ENE,58,0.0,0.0,94,0.00,,---,0.00,VWS V14.01,2013-01-29 08:29:00,
2013-01-29 03:30:00,60.2,58.5,30.11,ENE,58,0.0,0.0,94,0.00,,---,0.00,VWS V14.01,2013-01-29 08:30:00,
2013-01-29 03:31:00,60.4,58.7,30.11,ENE,58,0.0,0.0,94,0.00,,---,0.00,VWS V14.01,2013-01-29 08:31:00,
2013-01-29 03:32:00,60.4,58.7,30.11,ENE,58,0.0,0.0,94,0.00,,---,0.00,VWS V14.01,2013-01-29 08:32:00,
2013-01-29 03:34:00,60.4,58.7,30.11,ENE,58,0.0,0.0,94,0.00,,---,0.00,VWS V14.01,2013-01-29 08:34:00,
2013-01-29 03:35:00,60.4,58.7,30.11,ENE,58,0.0,0.0,94,0.00,,---,0.00,VWS V14.01,2013-01-29 08:35:00,
2013-01-29 03:36:00,60.4,58.7,30.11,ENE,58,0.0,0.0,94,0.00,,---,0.00,VWS V14.01,2013-01-29 08:36:00,
2013-01-29 03:37:00,60.4,58.7,30.11,ENE,58,0.0,0.0,94,0.00,,---,0.00,VWS V14.01,2013-01-29 08:37:00,
2013-01-29 03:39:00,60.4,58.7,30.11,ENE,58,0.0,0.0,94,0.00,,---,0.00,VWS V14.01,2013-01-29 08:39:00,
2013-01-29 03:40:00,60.4,59.0,30.11,ENE,58,0.0,0.0,95,0.00,,---,0.00,VWS V14.01,2013-01-29 08:40:00,
2013-01-29 03:41:00,60.4,59.0,30.11,ENE,58,0.0,0.0,95,0.00,,---,0.00,VWS V14.01,2013-01-29 08:41:00,
2013-01-29 03:42:00,60.4,59.0,30.11,ENE,58,0.0,0.0,95,0.00,,---,0.00,VWS V14.01,2013-01-29 08:42:00,
2013-01-29 03:44:00,60.4,59.0,30.11,ENE,58,0.0,0.0,95,0.00,,---,0.00,VWS V14.01,2013-01-29 08:44:00,
2013-01-29 03:45:00,60.4,59.0,30.11,ENE,58,0.0,1.0,95,0.00,,---,0.00,VWS V14.01,2013-01-29 08:45:00,
2013-01-29 03:46:00,60.5,59.1,30.11,ENE,58,0.0,1.0,95,0.00,,---,0.00,VWS V14.01,2013-01-29 08:46:00,
2013-01-29 03:47:00,60.5,59.1,30.11,ENE,58,0.0,1.0,95,0.00,,---,0.00,VWS V14.01,2013-01-29 08:47:00,
2013-01-29 03:49:00,60.4,59.0,30.11,ENE,58,0.0,1.0,95,0.00,,---,0.00,VWS V14.01,2013-01-29 08:49:00,
2013-01-29 03:50:00,60.4,59.0,30.11,ENE,58,2.0,2.0,95,0.00,,---,0.00,VWS V14.01,2013-01-29 08:50:00,
2013-01-29 03:51:00,60.4,59.0,30.11,ENE,58,0.0,2.0,95,0.00,,---,0.00,VWS V14.01,2013-01-29 08:51:00,
2013-01-29 03:52:00,60.4,59.0,30.11,ENE,58,2.0,4.0,95,0.00,,---,0.00,VWS V14.01,2013-01-29 08:52:00,
2013-01-29 03:54:00,60.5,59.1,30.11,ENE,58,0.0,4.0,95,0.00,,---,0.00,VWS V14.01,2013-01-29 08:54:00,
2013-01-29 03:55:00,60.5,59.1,30.11,ENE,58,0.0,4.0,95,0.00,,---,0.00,VWS V14.01,2013-01-29 08:55:00,
2013-01-29 03:56:00,60.5,59.1,30.11,ENE,58,0.0,4.0,95,0.00,,---,0.00,VWS V14.01,2013-01-29 08:56:00,
2013-01-29 03:57:00,60.5,59.1,30.11,ENE,58,0.0,4.0,95,0.00,,---,0.00,VWS V14.01,2013-01-29 08:57:00,
2013-01-29 03:59:00,60.5,59.1,30.11,ENE,58,0.0,4.0,95,0.00,,---,0.00,VWS V14.01,2013-01-29 08:59:00,
2013-01-29 04:00:00,60.5,59.1,30.11,ENE,58,0.0,4.0,95,0.00,,---,0.00,VWS V14.01,2013-01-29 09:00:00,
2013-01-29 04:01:00,60.5,59.1,30.11,ENE,58,0.0,4.0,95,0.00,,---,0.00,VWS V14.01,2013-01-29 09:01:00,
2013-01-29 04:02:00,60.5,59.1,30.11,ENE,58,0.0,4.0,95,0.00,,---,0.00,VWS V14.01,2013-01-29 09:02:00,
2013-01-29 04:04:00,60.5,59.1,30.11,ENE,58,0.0,0.0,95,0.00,,---,0.00,VWS V14.01,2013-01-29 09:04:00,
2013-01-29 04:06:00,60.5,59.1,30.11,ENE,58,0.0,0.0,95,0.00,,---,0.00,VWS V14.01,2013-01-29 09:06:00,
2013-01-29 04:07:00,60.5,59.1,30.11,ENE,58,0.0,0.0,95,0.00,,---,0.00,VWS V14.01,2013-01-29 09:07:00,
2013-01-29 04:09:00,60.4,59.0,30.11,ENE,58,0.0,0.0,95,0.00,,---,0.00,VWS V14.01,2013-01-29 09:09:00,
2013-01-29 04:11:00,60.4,59.0,30.11,ENE,58,0.0,0.0,95,0.00,,---,0.00,VWS V14.01,2013-01-29 09:11:00,
2013-01-29 04:12:00,60.4,59.0,30.11,ENE,58,0.0,0.0,95,0.00,,---,0.00,VWS V14.01,2013-01-29 09:12:00,
2013-01-29 04:14:00,60.4,59.0,30.11,ENE,58,0.0,0.0,95,0.00,,---,0.00,VWS V14.01,2013-01-29 09:14:00,
2013-01-29 04:16:00,60.4,59.0,30.11,ENE,58,0.0,0.0,95,0.00,,---,0.00,VWS V14.01,2013-01-29 09:16:00,
2013-01-29 04:17:00,60.4,59.0,30.11,ENE,58,0.0,0.0,95,0.00,,---,0.00,VWS V14.01,2013-01-29 09:17:00,
2013-01-29 04:19:00,60.4,59.3,30.11,ENE,58,0.0,0.0,96,0.00,,---,0.00,VWS V14.01,2013-01-29 09:19:00,
2013-01-29 04:21:00,60.4,59.3,30.11,ENE,58,0.0,0.0,96,0.00,,---,0.00,VWS V14.01,2013-01-29 09:21:00,
2013-01-29 04:22:00,60.4,59.0,30.11,ENE,58,0.0,0.0,95,0.00,,---,0.00,VWS V14.01,2013-01-29 09:22:00,
2013-01-29 04:25:00,60.2,58.8,30.11,ENE,58,0.0,0.0,95,0.00,,---,0.00,VWS V14.01,2013-01-29 09:25:00,
2013-01-29 04:26:00,60.2,59.1,30.11,ENE,58,0.0,0.0,96,0.00,,---,0.00,VWS V14.01,2013-01-29 09:26:00,
2013-01-29 04:28:00,60.2,59.1,30.11,ENE,58,0.0,0.0,96,0.00,,---,0.00,VWS V14.01,2013-01-29 09:28:00,
2013-01-29 04:30:00,60.2,59.1,30.11,ENE,58,0.0,0.0,96,0.00,,---,0.00,VWS V14.01,2013-01-29 09:30:00,
2013-01-29 04:31:00,60.2,59.1,30.11,ENE,58,0.0,0.0,96,0.00,,---,0.00,VWS V14.01,2013-01-29 09:31:00,
2013-01-29 04:33:00,60.2,59.1,30.11,ENE,58,0.0,1.0,96,0.00,,---,0.00,VWS V14.01,2013-01-29 09:33:00,
2013-01-29 04:35:00,60.2,59.1,30.11,ENE,58,0.0,1.0,96,0.00,,---,0.00,VWS V14.01,2013-01-29 09:35:00,
2013-01-29 04:36:00,60.4,59.3,30.11,ENE,58,0.0,1.0,96,0.00,,---,0.00,VWS V14.01,2013-01-29 09:36:00,
2013-01-29 04:38:00,60.4,59.3,30.11,ENE,58,0.0,1.0,96,0.00,,---,0.00,VWS V14.01,2013-01-29 09:38:00,
2013-01-29 04:40:00,60.4,59.3,30.11,ENE,58,0.0,1.0,96,0.00,,---,0.00,VWS V14.01,2013-01-29 09:40:00,
2013-01-29 04:41:00,60.4,59.3,30.11,ENE,58,0.0,1.0,96,0.00,,---,0.00,VWS V14.01,2013-01-29 09:41:00,
2013-01-29 04:43:00,60.2,59.1,30.11,ENE,58,0.0,1.0,96,0.00,,---,0.00,VWS V14.01,2013-01-29 09:43:00,
2013-01-29 04:45:00,60.2,59.1,30.11,ENE,58,0.0,1.0,96,0.00,,---,0.00,VWS V14.01,2013-01-29 09:45:00,
2013-01-29 04:46:00,60.2,59.1,30.11,ENE,58,0.0,1.0,96,0.00,,---,0.00,VWS V14.01,2013-01-29 09:46:00,
2013-01-29 04:48:00,60.2,59.1,30.10,ENE,58,0.0,1.0,96,0.00,,---,0.00,VWS V14.01,2013-01-29 09:48:00,
2013-01-29 04:50:00,60.1,59.0,30.10,ENE,58,0.0,1.0,96,0.00,,---,0.00,VWS V14.01,2013-01-29 09:50:00,
2013-01-29 04:51:00,60.1,59.0,30.10,ENE,58,0.0,1.0,96,0.00,,---,0.00,VWS V14.01,2013-01-29 09:51:00,
2013-01-29 04:53:00,60.1,59.0,30.10,ENE,58,0.0,2.0,96,0.00,,---,0.00,VWS V14.01,2013-01-29 09:53:00,
2013-01-29 04:55:00,59.9,58.8,30.10,ENE,58,0.0,2.0,96,0.00,,---,0.00,VWS V14.01,2013-01-29 09:55:00,
2013-01-29 04:56:00,59.9,58.8,30.10,ENE,58,0.0,2.0,96,0.00,,---,0.00,VWS V14.01,2013-01-29 09:56:00,
2013-01-29 04:57:00,59.9,58.8,30.10,ENE,58,0.0,2.0,96,0.00,,---,0.00,VWS V14.01,2013-01-29 09:57:00,
2013-01-29 04:58:00,59.9,58.8,30.10,ENE,58,0.0,2.0,96,0.00,,---,0.00,VWS V14.01,2013-01-29 09:58:00,
2013-01-29 05:00:00,59.8,58.7,30.10,ENE,58,0.0,2.0,96,0.00,,---,0.00,VWS V14.01,2013-01-29 10:00:00,
2013-01-29 05:01:00,59.8,58.7,30.10,ENE,58,0.0,2.0,96,0.00,,---,0.00,VWS V14.01,2013-01-29 10:01:00,
2013-01-29 05:02:00,59.8,58.7,30.10,ENE,58,0.0,2.0,96,0.00,,---,0.00,VWS V14.01,2013-01-29 10:02:00,
2013-01-29 05:03:00,59.8,58.7,30.11,ENE,58,0.0,2.0,96,0.00,,---,0.00,VWS V14.01,2013-01-29 10:03:00,
2013-01-29 05:05:00,59.8,58.7,30.11,ENE,58,0.0,0.0,96,0.00,,---,0.00,VWS V14.01,2013-01-29 10:05:00,
2013-01-29 05:06:00,59.8,58.7,30.11,ENE,58,0.0,0.0,96,0.00,,---,0.00,VWS V14.01,2013-01-29 10:06:00,
2013-01-29 05:07:00,59.8,58.7,30.11,ENE,58,0.0,0.0,96,0.00,,---,0.00,VWS V14.01,2013-01-29 10:07:00,
2013-01-29 05:08:00,59.8,58.7,30.11,ENE,58,0.0,0.0,96,0.00,,---,0.00,VWS V14.01,2013-01-29 10:08:00,
2013-01-29 05:10:00,59.8,58.7,30.11,ENE,58,0.0,0.0,96,0.00,,---,0.00,VWS V14.01,2013-01-29 10:10:00,
2013-01-29 05:11:00,59.8,58.7,30.11,ENE,58,0.0,0.0,96,0.00,,---,0.00,VWS V14.01,2013-01-29 10:11:00,
2013-01-29 05:12:00,59.8,58.7,30.11,ENE,58,0.0,0.0,96,0.00,,---,0.00,VWS V14.01,2013-01-29 10:12:00,
2013-01-29 05:13:00,59.8,59.0,30.11,ENE,58,0.0,0.0,97,0.00,,---,0.00,VWS V14.01,2013-01-29 10:13:00,
2013-01-29 05:15:00,59.8,59.0,30.11,ENE,58,0.0,0.0,97,0.00,,---,0.00,VWS V14.01,2013-01-29 10:15:00,
2013-01-29 05:16:00,59.8,59.0,30.11,ENE,58,0.0,0.0,97,0.00,,---,0.00,VWS V14.01,2013-01-29 10:16:00,
2013-01-29 05:17:00,59.8,59.0,30.11,ENE,58,0.0,0.0,97,0.00,,---,0.00,VWS V14.01,2013-01-29 10:17:00,
2013-01-29 05:18:00,59.8,59.0,30.11,ENE,58,0.0,0.0,97,0.00,,---,0.00,VWS V14.01,2013-01-29 10:18:00,
2013-01-29 05:20:00,59.8,59.0,30.11,ENE,58,0.0,0.0,97,0.00,,---,0.00,VWS V14.01,2013-01-29 10:20:00,
2013-01-29 05:21:00,59.6,58.8,30.11,ENE,58,0.0,0.0,97,0.00,,---,0.00,VWS V14.01,2013-01-29 10:21:00,
2013-01-29 05:22:00,59.6,58.8,30.11,ENE,58,0.0,0.0,97,0.00,,---,0.00,VWS V14.01,2013-01-29 10:22:00,
2013-01-29 05:23:00,59.6,58.8,30.11,ENE,58,0.0,0.0,97,0.00,,---,0.00,VWS V14.01,2013-01-29 10:23:00,
2013-01-29 05:25:00,59.6,58.8,30.11,ENE,58,0.0,2.0,97,0.00,,---,0.00,VWS V14.01,2013-01-29 10:25:00,
2013-01-29 05:26:00,59.5,58.7,30.11,ENE,58,0.0,2.0,97,0.00,,---,0.00,VWS V14.01,2013-01-29 10:26:00,
2013-01-29 05:27:00,59.5,58.7,30.11,ENE,58,0.0,2.0,97,0.00,,---,0.00,VWS V14.01,2013-01-29 10:27:00,
2013-01-29 05:28:00,59.5,58.7,30.11,ENE,58,0.0,2.0,97,0.00,,---,0.00,VWS V14.01,2013-01-29 10:28:00,
2013-01-29 05:30:00,59.3,58.5,30.11,ENE,58,0.0,2.0,97,0.00,,---,0.00,VWS V14.01,2013-01-29 10:30:00,
2013-01-29 05:31:00,59.3,58.5,30.11,ENE,58,0.0,2.0,97,0.00,,---,0.00,VWS V14.01,2013-01-29 10:31:00,
2013-01-29 05:32:00,59.3,58.5,30.11,ENE,58,0.0,2.0,97,0.00,,---,0.00,VWS V14.01,2013-01-29 10:32:00,
2013-01-29 05:33:00,59.3,58.5,30.11,ENE,58,0.0,2.0,97,0.00,,---,0.00,VWS V14.01,2013-01-29 10:33:00,
2013-01-29 05:35:00,59.3,58.5,30.11,ENE,58,0.0,2.0,97,0.00,,---,0.00,VWS V14.01,2013-01-29 10:35:00,
2013-01-29 05:36:00,59.3,58.5,30.11,ENE,58,0.0,2.0,97,0.00,,---,0.00,VWS V14.01,2013-01-29 10:36:00,
2013-01-29 05:37:00,59.3,58.5,30.11,ENE,58,0.0,2.0,97,0.00,,---,0.00,VWS V14.01,2013-01-29 10:37:00,
2013-01-29 05:38:00,59.3,58.5,30.11,ENE,58,0.0,2.0,97,0.00,,---,0.00,VWS V14.01,2013-01-29 10:38:00,
2013-01-29 05:40:00,59.3,58.5,30.11,ENE,58,0.0,2.0,97,0.00,,---,0.00,VWS V14.01,2013-01-29 10:40:00,
2013-01-29 05:41:00,59.3,58.5,30.11,ENE,58,0.0,2.0,97,0.00,,---,0.00,VWS V14.01,2013-01-29 10:41:00,
2013-01-29 05:42:00,59.3,58.5,30.11,ENE,58,0.0,2.0,97,0.00,,---,0.00,VWS V14.01,2013-01-29 10:42:00,
2013-01-29 05:43:00,59.3,58.5,30.11,ENE,58,0.0,2.0,97,0.00,,---,0.00,VWS V14.01,2013-01-29 10:43:00,
2013-01-29 05:45:00,59.3,58.5,30.11,ENE,58,0.0,2.0,97,0.00,,---,0.00,VWS V14.01,2013-01-29 10:45:00,
2013-01-29 05:46:00,59.2,58.3,30.11,ENE,58,0.0,2.0,97,0.00,,---,0.00,VWS V14.01,2013-01-29 10:46:00,
2013-01-29 05:47:00,59.2,58.3,30.11,ENE,58,0.0,2.0,97,0.00,,---,0.00,VWS V14.01,2013-01-29 10:47:00,
2013-01-29 05:48:00,59.2,58.3,30.11,ENE,58,0.0,2.0,97,0.00,,---,0.00,VWS V14.01,2013-01-29 10:48:00,
2013-01-29 05:50:00,59.2,58.3,30.11,ENE,58,0.0,2.0,97,0.00,,---,0.00,VWS V14.01,2013-01-29 10:50:00,
2013-01-29 05:52:00,59.2,58.3,30.11,ENE,58,0.0,2.0,97,0.00,,---,0.00,VWS V14.01,2013-01-29 10:52:00,
2013-01-29 05:53:00,59.2,58.3,30.11,ENE,58,0.0,2.0,97,0.00,,---,0.00,VWS V14.01,2013-01-29 10:53:00,
2013-01-29 05:55:00,59.2,58.3,30.11,ENE,58,0.0,2.0,97,0.00,,---,0.00,VWS V14.01,2013-01-29 10:55:00,
2013-01-29 05:57:00,59.2,58.3,30.11,ENE,58,0.0,3.0,97,0.00,,---,0.00,VWS V14.01,2013-01-29 10:57:00,
2013-01-29 05:58:00,59.2,58.3,30.11,ENE,58,0.0,3.0,97,0.00,,---,0.00,VWS V14.01,2013-01-29 10:58:00,
2013-01-29 06:00:00,59.3,58.5,30.11,ENE,58,0.0,3.0,97,0.00,,---,0.00,VWS V14.01,2013-01-29 11:00:00,
2013-01-29 06:02:00,59.3,58.5,30.11,ENE,58,0.0,3.0,97,0.00,,---,0.00,VWS V14.01,2013-01-29 11:02:00,
2013-01-29 06:03:00,59.3,58.5,30.11,ENE,58,0.0,0.0,97,0.00,,---,0.00,VWS V14.01,2013-01-29 11:03:00,
2013-01-29 06:05:00,59.3,58.5,30.11,ENE,58,0.0,0.0,97,0.00,,---,0.00,VWS V14.01,2013-01-29 11:05:00,
2013-01-29 06:07:00,59.3,58.5,30.11,ENE,58,0.0,0.0,97,0.00,,---,0.00,VWS V14.01,2013-01-29 11:07:00,
2013-01-29 06:08:00,59.5,58.7,30.11,ENE,58,0.0,0.0,97,0.00,,---,0.00,VWS V14.01,2013-01-29 11:08:00,
2013-01-29 06:10:00,59.5,58.7,30.11,ENE,58,0.0,0.0,97,0.00,,---,0.00,VWS V14.01,2013-01-29 11:10:00,
2013-01-29 06:12:00,59.5,58.7,30.11,ENE,58,0.0,0.0,97,0.00,,---,0.00,VWS V14.01,2013-01-29 11:12:00,
2013-01-29 06:13:00,59.3,58.5,30.11,ENE,58,0.0,0.0,97,0.00,,---,0.00,VWS V14.01,2013-01-29 11:13:00,
2013-01-29 06:15:00,59.3,58.5,30.11,ENE,58,0.0,0.0,97,0.00,,---,0.00,VWS V14.01,2013-01-29 11:15:00,
2013-01-29 06:17:00,59.2,58.3,30.11,ENE,58,0.0,0.0,97,0.00,,---,0.00,VWS V14.01,2013-01-29 11:17:00,
2013-01-29 06:18:00,59.2,58.3,30.12,ENE,58,0.0,0.0,97,0.00,,---,0.00,VWS V14.01,2013-01-29 11:18:00,
2013-01-29 06:20:00,59.2,58.3,30.12,ENE,58,0.0,0.0,97,0.00,,---,0.00,VWS V14.01,2013-01-29 11:20:00,
2013-01-29 06:22:00,59.2,58.3,30.12,ENE,58,0.0,0.0,97,0.00,,---,0.00,VWS V14.01,2013-01-29 11:22:00,
2013-01-29 06:23:00,59.2,58.3,30.12,ENE,58,0.0,0.0,97,0.00,,---,0.00,VWS V14.01,2013-01-29 11:23:00,
2013-01-29 06:25:00,59.2,58.3,30.12,ENE,58,0.0,0.0,97,0.00,,---,0.00,VWS V14.01,2013-01-29 11:25:00,
2013-01-29 06:27:00,59.2,58.3,30.12,ENE,58,0.0,0.0,97,0.00,,---,0.00,VWS V14.01,2013-01-29 11:27:00,
2013-01-29 06:29:00,59.2,58.3,30.12,ENE,58,0.0,0.0,97,0.00,,---,0.00,VWS V14.01,2013-01-29 11:29:00,
2013-01-29 06:30:00,59.3,58.5,30.12,ENE,58,0.0,0.0,97,0.00,,---,0.00,VWS V14.01,2013-01-29 11:30:00,
2013-01-29 06:32:00,59.3,58.5,30.12,ENE,58,0.0,0.0,97,0.00,,---,0.00,VWS V14.01,2013-01-29 11:32:00,
2013-01-29 06:34:00,59.3,58.5,30.13,ENE,58,0.0,1.0,97,0.00,,---,0.00,VWS V14.01,2013-01-29 11:34:00,
2013-01-29 06:35:00,59.3,58.5,30.13,ENE,58,0.0,1.0,97,0.00,,---,0.00,VWS V14.01,2013-01-29 11:35:00,
2013-01-29 06:37:00,59.3,58.5,30.13,ENE,58,0.0,1.0,97,0.00,,---,0.00,VWS V14.01,2013-01-29 11:37:00,
2013-01-29 06:39:00,59.3,58.5,30.13,ENE,58,0.0,1.0,97,0.00,,---,0.00,VWS V14.01,2013-01-29 11:39:00,
2013-01-29 06:41:00,59.3,58.5,30.13,ENE,58,0.0,1.0,97,0.00,,---,0.00,VWS V14.01,2013-01-29 11:41:00,
2013-01-29 06:42:00,59.3,58.5,30.13,ENE,58,0.0,1.0,97,0.00,,---,0.00,VWS V14.01,2013-01-29 11:42:00,
2013-01-29 06:44:00,59.3,58.5,30.13,ENE,58,0.0,1.0,97,0.00,,---,0.00,VWS V14.01,2013-01-29 11:44:00,
2013-01-29 06:46:00,59.3,58.7,30.13,ENE,58,0.0,1.0,98,0.00,,---,0.00,VWS V14.01,2013-01-29 11:46:00,
2013-01-29 06:47:00,59.3,58.7,30.13,ENE,58,0.0,1.0,98,0.00,,---,0.00,VWS V14.01,2013-01-29 11:47:00,
2013-01-29 06:49:00,59.3,58.7,30.13,ENE,58,0.0,1.0,98,0.00,,---,0.00,VWS V14.01,2013-01-29 11:49:00,
2013-01-29 06:51:00,59.3,58.7,30.13,ENE,58,1.0,2.0,98,0.00,,---,0.00,VWS V14.01,2013-01-29 11:51:00,
2013-01-29 06:52:00,59.3,58.7,30.13,ENE,58,0.0,2.0,98,0.00,,---,0.00,VWS V14.01,2013-01-29 11:52:00,
2013-01-29 06:54:00,59.3,58.7,30.13,ENE,58,0.0,2.0,98,0.00,,---,0.00,VWS V14.01,2013-01-29 11:54:00,
2013-01-29 06:56:00,59.3,58.7,30.13,ENE,58,0.0,2.0,98,0.00,,---,0.00,VWS V14.01,2013-01-29 11:56:00,
2013-01-29 06:57:00,59.3,58.7,30.13,ENE,58,0.0,2.0,98,0.00,,---,0.00,VWS V14.01,2013-01-29 11:57:00,
2013-01-29 06:59:00,59.3,58.7,30.13,ENE,58,0.0,2.0,98,0.00,,---,0.00,VWS V14.01,2013-01-29 11:59:00,
2013-01-29 07:00:00,59.5,58.9,30.13,ENE,58,1.0,4.0,98,0.00,,---,0.00,VWS V14.01,2013-01-29 12:00:00,
2013-01-29 07:01:00,59.3,58.7,30.13,ENE,58,0.0,2.0,98,0.00,,---,0.00,VWS V14.01,2013-01-29 12:01:00,
2013-01-29 07:02:00,59.5,58.9,30.13,ENE,58,0.0,2.0,98,0.00,,---,0.00,VWS V14.01,2013-01-29 12:02:00,
2013-01-29 07:04:00,59.5,58.9,30.13,ENE,58,0.0,0.0,98,0.00,,---,0.00,VWS V14.01,2013-01-29 12:04:00,
2013-01-29 07:06:00,59.5,58.9,30.13,ENE,58,0.0,0.0,98,0.00,,---,0.00,VWS V14.01,2013-01-29 12:06:00,
2013-01-29 07:07:00,59.6,59.0,30.13,ENE,58,0.0,0.0,98,0.00,,---,0.00,VWS V14.01,2013-01-29 12:07:00,
2013-01-29 07:09:00,59.6,59.0,30.13,ENE,58,0.0,0.0,98,0.00,,---,0.00,VWS V14.01,2013-01-29 12:09:00,
2013-01-29 07:11:00,59.6,59.0,30.13,ENE,58,0.0,4.0,98,0.00,,---,0.00,VWS V14.01,2013-01-29 12:11:00,
2013-01-29 07:12:00,59.6,59.0,30.13,ENE,58,0.0,4.0,98,0.00,,---,0.00,VWS V14.01,2013-01-29 12:12:00,
2013-01-29 07:14:00,59.6,59.0,30.13,ENE,58,0.0,4.0,98,0.00,,---,0.00,VWS V14.01,2013-01-29 12:14:00,
2013-01-29 07:16:00,59.8,59.2,30.13,ENE,58,0.0,4.0,98,0.00,,---,0.00,VWS V14.01,2013-01-29 12:16:00,
2013-01-29 07:17:00,59.8,59.2,30.13,ENE,58,0.0,4.0,98,0.00,,---,0.00,VWS V14.01,2013-01-29 12:17:00,
2013-01-29 07:19:00,59.8,59.2,30.13,ENE,58,0.0,4.0,98,0.00,,---,0.00,VWS V14.01,2013-01-29 12:19:00,
2013-01-29 07:21:00,59.8,59.2,30.13,ENE,58,0.0,4.0,98,0.00,,---,0.00,VWS V14.01,2013-01-29 12:21:00,
2013-01-29 07:22:00,59.9,59.3,30.13,ENE,58,0.0,4.0,98,0.00,,---,0.00,VWS V14.01,2013-01-29 12:22:00,
2013-01-29 07:24:00,59.9,59.3,30.13,ENE,58,1.0,4.0,98,0.00,,---,0.00,VWS V14.01,2013-01-29 12:24:00,
2013-01-29 07:26:00,59.9,59.3,30.13,ENE,58,4.0,4.0,98,0.00,,---,0.00,VWS V14.01,2013-01-29 12:26:00,
2013-01-29 07:27:00,60.1,59.5,30.13,ENE,58,0.0,4.0,98,0.00,,---,0.00,VWS V14.01,2013-01-29 12:27:00,
2013-01-29 07:29:00,60.1,59.5,30.13,ENE,58,0.0,4.0,98,0.00,,---,0.00,VWS V14.01,2013-01-29 12:29:00,
2013-01-29 07:31:00,60.1,59.5,30.13,ENE,58,0.0,4.0,98,0.00,,---,0.00,VWS V14.01,2013-01-29 12:31:00,
2013-01-29 07:32:00,60.2,59.6,30.13,ENE,58,0.0,4.0,98,0.00,,---,0.00,VWS V14.01,2013-01-29 12:32:00,
2013-01-29 07:34:00,60.2,59.6,30.13,ENE,58,0.0,4.0,98,0.00,,---,0.00,VWS V14.01,2013-01-29 12:34:00,
2013-01-29 07:36:00,60.2,59.6,30.13,ENE,58,0.0,4.0,98,0.00,,---,0.00,VWS V14.01,2013-01-29 12:36:00,
2013-01-29 07:37:00,60.2,59.6,30.13,ENE,58,0.0,4.0,98,0.00,,---,0.00,VWS V14.01,2013-01-29 12:37:00,
2013-01-29 07:39:00,60.4,59.8,30.13,ENE,58,0.0,4.0,98,0.00,,---,0.00,VWS V14.01,2013-01-29 12:39:00,
2013-01-29 07:41:00,60.4,59.8,30.13,ENE,58,1.0,4.0,98,0.00,,---,0.00,VWS V14.01,2013-01-29 12:41:00,
2013-01-29 07:42:00,60.4,59.8,30.13,ENE,58,0.0,4.0,98,0.00,,---,0.00,VWS V14.01,2013-01-29 12:42:00,
2013-01-29 07:44:00,60.4,59.8,30.13,ENE,58,0.0,4.0,98,0.00,,---,0.00,VWS V14.01,2013-01-29 12:44:00,
2013-01-29 07:46:00,60.5,60.2,30.13,ENE,58,0.0,4.0,99,0.00,,---,0.00,VWS V14.01,2013-01-29 12:46:00,
2013-01-29 07:47:00,60.5,60.2,30.13,ENE,58,1.0,4.0,99,0.00,,---,0.00,VWS V14.01,2013-01-29 12:47:00,
2013-01-29 07:49:00,60.7,60.4,30.13,ENE,58,0.0,4.0,99,0.00,,---,0.00,VWS V14.01,2013-01-29 12:49:00,
2013-01-29 07:51:00,60.7,60.4,30.13,ENE,58,0.0,4.0,99,0.00,,---,0.00,VWS V14.01,2013-01-29 12:51:00,
2013-01-29 07:52:00,60.9,60.6,30.13,ENE,58,4.0,5.0,99,0.00,,---,0.00,VWS V14.01,2013-01-29 12:52:00,
2013-01-29 07:53:00,60.9,60.6,30.13,ENE,58,4.0,5.0,99,0.00,,---,0.00,VWS V14.01,2013-01-29 12:53:00,
2013-01-29 07:54:00,60.9,60.6,30.13,ENE,58,0.0,5.0,99,0.00,,---,0.00,VWS V14.01,2013-01-29 12:54:00,
2013-01-29 07:56:00,61.0,60.7,30.13,ENE,58,4.0,5.0,99,0.00,,---,0.00,VWS V14.01,2013-01-29 12:56:00,
2013-01-29 07:57:00,61.0,60.7,30.13,ENE,58,0.0,5.0,99,0.00,,---,0.00,VWS V14.01,2013-01-29 12:57:00,
2013-01-29 07:58:00,61.0,60.7,30.13,ENE,58,0.0,5.0,99,0.00,,---,0.00,VWS V14.01,2013-01-29 12:58:00,
2013-01-29 07:59:00,61.0,60.7,30.13,ENE,58,0.0,5.0,99,0.00,,---,0.00,VWS V14.01,2013-01-29 12:59:00,
2013-01-29 08:00:00,61.3,61.0,30.13,ENE,58,1.0,5.0,99,0.00,,---,0.00,VWS V14.01,2013-01-29 13:00:00,
2013-01-29 08:01:00,61.2,60.9,30.13,ENE,58,4.0,5.0,99,0.00,,---,0.00,VWS V14.01,2013-01-29 13:01:00,
2013-01-29 08:02:00,61.2,60.9,30.13,ENE,58,4.0,5.0,99,0.00,,---,0.00,VWS V14.01,2013-01-29 13:02:00,
2013-01-29 08:03:00,61.3,61.0,30.13,ENE,58,2.0,5.0,99,0.00,,---,0.00,VWS V14.01,2013-01-29 13:03:00,
2013-01-29 08:04:00,61.3,61.0,30.13,ENE,58,1.0,6.0,99,0.00,,---,0.00,VWS V14.01,2013-01-29 13:04:00,
2013-01-29 08:06:00,61.3,61.0,30.13,ENE,58,0.0,6.0,99,0.00,,---,0.00,VWS V14.01,2013-01-29 13:06:00,
2013-01-29 08:08:00,61.5,61.2,30.13,ENE,58,0.0,6.0,99,0.00,,---,0.00,VWS V14.01,2013-01-29 13:08:00,
2013-01-29 08:09:00,61.5,61.2,30.13,ENE,60,0.0,6.0,99,0.00,,---,0.00,VWS V14.01,2013-01-29 13:09:00,
2013-01-29 08:11:00,61.6,61.3,30.13,ENE,60,6.0,6.0,99,0.00,,---,0.00,VWS V14.01,2013-01-29 13:11:00,
2013-01-29 08:13:00,61.6,61.3,30.13,ENE,60,4.0,7.0,99,0.00,,---,0.00,VWS V14.01,2013-01-29 13:13:00,
2013-01-29 08:14:00,61.8,61.5,30.13,ENE,60,0.0,7.0,99,0.00,,---,0.00,VWS V14.01,2013-01-29 13:14:00,
2013-01-29 08:16:00,61.8,61.5,30.13,ENE,60,0.0,7.0,99,0.00,,---,0.00,VWS V14.01,2013-01-29 13:16:00,
2013-01-29 08:18:00,62.0,61.7,30.13,ENE,60,4.0,7.0,99,0.00,,---,0.00,VWS V14.01,2013-01-29 13:18:00,
2013-01-29 08:19:00,62.0,61.7,30.13,ENE,60,6.0,7.0,99,0.00,,---,0.00,VWS V14.01,2013-01-29 13:19:00,
2013-01-29 08:22:00,62.1,61.8,30.13,ENE,60,0.0,7.0,99,0.00,,---,0.00,VWS V14.01,2013-01-29 13:22:00,
2013-01-29 08:23:00,62.3,62.0,30.13,ENE,61,4.0,7.0,99,0.00,,---,0.00,VWS V14.01,2013-01-29 13:23:00,
2013-01-29 08:24:00,62.4,62.1,30.13,ENE,70,0.0,7.0,99,0.00,,---,0.00,VWS V14.01,2013-01-29 13:24:00,
2013-01-29 08:27:00,62.6,62.3,30.13,ENE,70,0.0,7.0,99,0.00,,---,0.00,VWS V14.01,2013-01-29 13:27:00,
2013-01-29 08:28:00,62.6,62.3,30.13,ENE,70,0.0,7.0,99,0.00,,---,0.00,VWS V14.01,2013-01-29 13:28:00,
2013-01-29 08:29:00,62.7,62.4,30.13,NE,47,3.0,7.0,99,0.00,,---,0.00,VWS V14.01,2013-01-29 13:29:00,
2013-01-29 08:32:00,62.9,62.6,30.13,ENE,67,7.0,7.0,99,0.00,,---,0.00,VWS V14.01,2013-01-29 13:32:00,
2013-01-29 08:33:00,62.9,62.6,30.14,ENE,76,0.0,7.0,99,0.00,,---,0.00,VWS V14.01,2013-01-29 13:33:00,
2013-01-29 08:34:00,63.1,62.8,30.14,ENE,76,0.0,7.0,99,0.00,,---,0.00,VWS V14.01,2013-01-29 13:34:00,
2013-01-29 08:37:00,63.1,62.8,30.14,ENE,77,0.0,7.0,99,0.00,,---,0.00,VWS V14.01,2013-01-29 13:37:00,
2013-01-29 08:38:00,63.2,62.9,30.14,ENE,77,0.0,7.0,99,0.00,,---,0.00,VWS V14.01,2013-01-29 13:38:00,
2013-01-29 08:39:00,63.2,62.9,30.14,ENE,77,4.0,7.0,99,0.00,,---,0.00,VWS V14.01,2013-01-29 13:39:00,
2013-01-29 08:42:00,63.2,62.9,30.14,ENE,77,2.0,7.0,99,0.00,,---,0.00,VWS V14.01,2013-01-29 13:42:00,
2013-01-29 08:43:00,63.4,63.1,30.14,ENE,77,0.0,7.0,99,0.00,,---,0.00,VWS V14.01,2013-01-29 13:43:00,
2013-01-29 08:44:00,63.4,63.1,30.14,ENE,77,0.0,7.0,99,0.00,,---,0.00,VWS V14.01,2013-01-29 13:44:00,
2013-01-29 08:47:00,63.5,63.2,30.14,ENE,77,1.0,7.0,99,0.00,,---,0.00,VWS V14.01,2013-01-29 13:47:00,
2013-01-29 08:48:00,63.5,63.2,30.14,ENE,77,2.0,7.0,99,0.00,,---,0.00,VWS V14.01,2013-01-29 13:48:00,
2013-01-29 08:49:00,63.7,63.4,30.14,East,86,0.0,7.0,99,0.00,,---,0.00,VWS V14.01,2013-01-29 13:49:00,
2013-01-29 08:52:00,63.9,63.6,30.14,East,85,0.0,7.0,99,0.00,,---,0.00,VWS V14.01,2013-01-29 13:52:00,
2013-01-29 08:53:00,63.9,63.6,30.14,East,85,0.0,7.0,99,0.00,,---,0.00,VWS V14.01,2013-01-29 13:53:00,
2013-01-29 08:54:00,64.0,63.7,30.14,East,85,0.0,7.0,99,0.00,,---,0.00,VWS V14.01,2013-01-29 13:54:00,
2013-01-29 08:57:00,64.2,63.9,30.14,East,85,0.0,7.0,99,0.00,,---,0.00,VWS V14.01,2013-01-29 13:57:00,
2013-01-29 08:58:00,64.5,64.5,30.14,East,86,5.0,7.0,100,0.00,,---,0.00,VWS V14.01,2013-01-29 13:58:00,
2013-01-29 08:59:00,64.5,64.2,30.14,East,94,0.0,7.0,99,0.00,,---,0.00,VWS V14.01,2013-01-29 13:59:00,
2013-01-29 09:00:00,64.8,64.5,30.14,ENE,75,2.0,8.0,99,0.00,,---,0.00,VWS V14.01,2013-01-29 14:00:00,
2013-01-29 09:02:00,64.7,64.4,30.14,ENE,76,7.0,7.0,99,0.00,,---,0.00,VWS V14.01,2013-01-29 14:02:00,
2013-01-29 09:03:00,64.8,64.5,30.14,ENE,75,6.0,6.0,99,0.00,,---,0.00,VWS V14.01,2013-01-29 14:03:00,
2013-01-29 09:04:00,64.8,64.5,30.14,ENE,75,0.0,7.0,99,0.00,,---,0.00,VWS V14.01,2013-01-29 14:04:00,
2013-01-29 09:07:00,65.0,64.7,30.14,ENE,75,0.0,7.0,99,0.00,,---,0.00,VWS V14.01,2013-01-29 14:07:00,
2013-01-29 09:08:00,65.2,64.9,30.14,ENE,75,0.0,7.0,99,0.00,,---,0.00,VWS V14.01,2013-01-29 14:08:00,
2013-01-29 09:10:00,65.3,65.0,30.14,ENE,75,6.0,7.0,99,0.00,,---,0.00,VWS V14.01,2013-01-29 14:10:00,
2013-01-29 09:12:00,65.5,65.2,30.14,ENE,75,0.0,7.0,99,0.00,,---,0.00,VWS V14.01,2013-01-29 14:12:00,
2013-01-29 09:13:00,65.6,65.3,30.14,ENE,78,0.0,7.0,99,0.00,,---,0.00,VWS V14.01,2013-01-29 14:13:00,
2013-01-29 09:15:00,65.6,65.3,30.14,ENE,78,2.0,7.0,99,0.00,,---,0.00,VWS V14.01,2013-01-29 14:15:00,
2013-01-29 09:17:00,66.0,65.7,30.14,East,82,2.0,7.0,99,0.00,,---,0.00,VWS V14.01,2013-01-29 14:17:00,
2013-01-29 09:18:00,66.1,65.8,30.14,East,82,0.0,7.0,99,0.00,,---,0.00,VWS V14.01,2013-01-29 14:18:00,
2013-01-29 09:20:00,66.3,66.0,30.14,East,82,0.0,7.0,99,0.00,,---,0.00,VWS V14.01,2013-01-29 14:20:00,
2013-01-29 09:22:00,66.4,66.1,30.14,ENE,68,1.0,8.0,99,0.00,,---,0.00,VWS V14.01,2013-01-29 14:22:00,
2013-01-29 09:23:00,66.4,65.8,30.14,ENE,68,0.0,8.0,98,0.00,,---,0.00,VWS V14.01,2013-01-29 14:23:00,
2013-01-29 09:25:00,66.6,66.0,30.14,ENE,68,0.0,8.0,98,0.00,,---,0.00,VWS V14.01,2013-01-29 14:25:00,
2013-01-29 09:27:00,66.9,66.3,30.14,ENE,68,0.0,8.0,98,0.00,,---,0.00,VWS V14.01,2013-01-29 14:27:00,
2013-01-29 09:28:00,67.1,66.5,30.14,ENE,67,3.0,8.0,98,0.00,,---,0.00,VWS V14.01,2013-01-29 14:28:00,
2013-01-29 09:30:00,67.1,66.2,30.14,ENE,64,7.0,8.0,97,0.00,,---,0.00,VWS V14.01,2013-01-29 14:30:00,
2013-01-29 09:32:00,67.3,66.4,30.14,ENE,70,3.0,8.0,97,0.00,,---,0.00,VWS V14.01,2013-01-29 14:32:00,
2013-01-29 09:34:00,67.4,66.5,30.14,ENE,60,0.0,8.0,97,0.00,,---,0.00,VWS V14.01,2013-01-29 14:34:00,
2013-01-29 09:35:00,67.6,66.7,30.14,East,82,6.0,8.0,97,0.00,,---,0.00,VWS V14.01,2013-01-29 14:35:00,
2013-01-29 09:37:00,67.9,66.7,30.14,East,86,2.0,8.0,96,0.00,,---,0.00,VWS V14.01,2013-01-29 14:37:00,
2013-01-29 09:39:00,67.9,66.4,30.14,ENE,65,0.0,9.0,95,0.00,,---,0.00,VWS V14.01,2013-01-29 14:39:00,
2013-01-29 09:40:00,68.1,66.6,30.14,ENE,64,0.0,9.0,95,0.00,,---,0.00,VWS V14.01,2013-01-29 14:40:00,
2013-01-29 09:42:00,68.3,66.8,30.14,ENE,67,5.0,9.0,95,0.00,,---,0.00,VWS V14.01,2013-01-29 14:42:00,
2013-01-29 09:44:00,68.6,66.8,30.14,ENE,67,3.0,9.0,94,0.00,,---,0.00,VWS V14.01,2013-01-29 14:44:00,
2013-01-29 09:45:00,68.6,66.8,30.14,ENE,67,0.0,9.0,94,0.00,,---,0.00,VWS V14.01,2013-01-29 14:45:00,
2013-01-29 09:47:00,69.1,67.0,30.14,ENE,67,4.0,9.0,93,0.00,,---,0.00,VWS V14.01,2013-01-29 14:47:00,
2013-01-29 09:49:00,69.4,67.0,30.14,ENE,67,4.0,9.0,92,0.00,,---,0.00,VWS V14.01,2013-01-29 14:49:00,
2013-01-29 09:50:00,69.4,67.0,30.14,East,88,2.0,9.0,92,0.00,,---,0.00,VWS V14.01,2013-01-29 14:50:00,
2013-01-29 09:52:00,69.6,66.9,30.14,ENE,77,5.0,10.0,91,0.00,,---,0.00,VWS V14.01,2013-01-29 14:52:00,
2013-01-29 09:54:00,69.9,66.8,30.14,ENE,74,0.0,10.0,90,0.00,,---,0.00,VWS V14.01,2013-01-29 14:54:00,
2013-01-29 09:55:00,70.1,67.0,30.14,ENE,78,0.0,10.0,90,0.00,,---,0.00,VWS V14.01,2013-01-29 14:55:00,
2013-01-29 09:57:00,70.3,66.9,30.14,ENE,78,1.0,10.0,89,0.00,,---,0.00,VWS V14.01,2013-01-29 14:57:00,
2013-01-29 09:59:00,70.6,66.9,30.14,ENE,72,6.0,10.0,88,0.00,,---,0.00,VWS V14.01,2013-01-29 14:59:00,
2013-01-29 10:00:00,70.8,66.7,30.14,East,98,0.0,10.0,87,0.00,,---,0.00,VWS V14.01,2013-01-29 15:00:00,
2013-01-29 10:02:00,71.1,67.0,30.14,ESE,115,0.0,10.0,87,0.00,,---,0.00,VWS V14.01,2013-01-29 15:02:00,
2013-01-29 10:04:00,71.5,66.8,30.14,ENE,75,5.0,8.0,85,0.00,,---,0.00,VWS V14.01,2013-01-29 15:04:00,
2013-01-29 10:05:00,71.6,66.9,30.14,ENE,75,2.0,8.0,85,0.00,,---,0.00,VWS V14.01,2013-01-29 15:05:00,
2013-01-29 10:07:00,72.0,67.2,30.14,ENE,75,0.0,8.0,85,0.00,,---,0.00,VWS V14.01,2013-01-29 15:07:00,
2013-01-29 10:09:00,72.3,66.8,30.14,ENE,77,0.0,8.0,83,0.00,,---,0.00,VWS V14.01,2013-01-29 15:09:00,
2013-01-29 10:10:00,72.5,67.1,30.14,ESE,113,4.0,8.0,83,0.00,,---,0.00,VWS V14.01,2013-01-29 15:10:00,
2013-01-29 10:12:00,72.7,66.9,30.14,ENE,78,0.0,8.0,82,0.00,,---,0.00,VWS V14.01,2013-01-29 15:12:00,
2013-01-29 10:14:00,73.0,66.8,30.14,East,90,0.0,8.0,81,0.00,,---,0.00,VWS V14.01,2013-01-29 15:14:00,
2013-01-29 10:15:00,73.3,67.1,30.14,East,95,1.0,8.0,81,0.00,,---,0.00,VWS V14.01,2013-01-29 15:15:00,
2013-01-29 10:17:00,73.7,66.8,30.13,ESE,113,5.0,10.0,79,0.00,,---,0.00,VWS V14.01,2013-01-29 15:17:00,
2013-01-29 10:19:00,74.0,67.1,30.13,SE,127,6.0,10.0,79,0.00,,---,0.00,VWS V14.01,2013-01-29 15:19:00,
2013-01-29 10:20:00,74.2,66.9,30.13,East,94,10.0,10.0,78,0.00,,---,0.00,VWS V14.01,2013-01-29 15:20:00,
2013-01-29 10:22:00,74.4,66.7,30.13,East,87,2.0,14.0,77,0.00,,---,0.00,VWS V14.01,2013-01-29 15:22:00,
2013-01-29 10:24:00,74.6,66.5,30.13,East,91,7.0,14.0,76,0.00,,---,0.00,VWS V14.01,2013-01-29 15:24:00,
2013-01-29 10:25:00,74.7,66.6,30.13,ESE,113,5.0,14.0,76,0.00,,---,0.00,VWS V14.01,2013-01-29 15:25:00,
2013-01-29 10:27:00,74.9,66.8,30.13,East,91,9.0,14.0,76,0.00,,---,0.00,VWS V14.01,2013-01-29 15:27:00,
2013-01-29 10:29:00,75.1,66.6,30.13,ENE,78,8.0,14.0,75,0.00,,---,0.00,VWS V14.01,2013-01-29 15:29:00,
2013-01-29 10:30:00,75.1,66.6,30.13,SSE,168,4.0,14.0,75,0.00,,---,0.00,VWS V14.01,2013-01-29 15:30:00,
2013-01-29 10:32:00,75.1,66.6,30.12,East,85,4.0,14.0,75,0.00,,---,0.00,VWS V14.01,2013-01-29 15:32:00,
2013-01-29 10:34:00,75.3,66.8,30.12,East,82,4.0,14.0,75,0.00,,---,0.00,VWS V14.01,2013-01-29 15:34:00,
2013-01-29 10:35:00,75.3,66.8,30.12,East,94,5.0,14.0,75,0.00,,---,0.00,VWS V14.01,2013-01-29 15:35:00,
2013-01-29 10:37:00,75.3,66.8,30.12,East,96,1.0,18.0,75,0.00,,---,0.00,VWS V14.01,2013-01-29 15:37:00,
2013-01-29 10:39:00,75.4,66.9,30.12,East,84,0.0,18.0,75,0.00,,---,0.00,VWS V14.01,2013-01-29 15:39:00,
2013-01-29 10:40:00,75.4,66.9,30.12,East,83,0.0,18.0,75,0.00,,---,0.00,VWS V14.01,2013-01-29 15:40:00,
2013-01-29 10:42:00,75.8,66.9,30.12,ENE,77,10.0,18.0,74,0.00,,---,0.00,VWS V14.01,2013-01-29 15:42:00,
2013-01-29 10:44:00,76.0,67.1,30.12,East,94,7.0,18.0,74,0.00,,---,0.00,VWS V14.01,2013-01-29 15:44:00,
2013-01-29 10:45:00,76.0,67.1,30.12,ENE,72,5.0,18.0,74,0.00,,---,0.00,VWS V14.01,2013-01-29 15:45:00,
2013-01-29 10:47:00,76.1,66.8,30.12,NE,36,6.0,18.0,73,0.00,,---,0.00,VWS V14.01,2013-01-29 15:47:00,
2013-01-29 10:49:00,76.5,67.2,30.12,East,89,5.0,18.0,73,0.00,,---,0.00,VWS V14.01,2013-01-29 15:49:00,
2013-01-29 10:50:00,76.5,67.2,30.12,ENE,64,11.0,18.0,73,0.00,,---,0.00,VWS V14.01,2013-01-29 15:50:00,
2013-01-29 10:52:00,76.5,66.4,30.12,NE,53,7.0,18.0,71,0.00,,---,0.00,VWS V14.01,2013-01-29 15:52:00,
2013-01-29 10:55:00,76.5,66.8,30.12,ESE,121,5.0,18.0,72,0.00,,---,0.00,VWS V14.01,2013-01-29 15:55:00,
2013-01-29 10:57:00,76.5,66.4,30.12,East,97,2.0,18.0,71,0.00,,---,0.00,VWS V14.01,2013-01-29 15:57:00,
2013-01-29 11:00:00,76.7,66.2,30.12,East,96,2.0,18.0,70,0.00,,---,0.00,VWS V14.01,2013-01-29 16:00:00,
2013-01-29 11:02:00,76.8,66.3,30.12,East,95,1.0,18.0,70,0.00,,---,0.00,VWS V14.01,2013-01-29 16:02:00,
2013-01-29 11:05:00,77.0,66.1,30.12,SE,131,9.0,10.0,69,0.00,,---,0.00,VWS V14.01,2013-01-29 16:05:00,
2013-01-29 11:07:00,77.4,65.6,30.12,ESE,110,6.0,13.0,67,0.00,,---,0.00,VWS V14.01,2013-01-29 16:07:00,
2013-01-29 11:10:00,77.6,65.8,30.12,ESE,110,5.0,13.0,67,0.00,,---,0.00,VWS V14.01,2013-01-29 16:10:00,
2013-01-29 11:12:00,77.9,66.1,30.12,ESE,120,10.0,13.0,67,0.00,,---,0.00,VWS V14.01,2013-01-29 16:12:00,
2013-01-29 11:15:00,77.9,65.2,30.12,ESE,116,4.0,13.0,65,0.00,,---,0.00,VWS V14.01,2013-01-29 16:15:00,
2013-01-29 11:17:00,77.9,65.6,30.11,East,84,0.0,13.0,66,0.00,,---,0.00,VWS V14.01,2013-01-29 16:17:00,
2013-01-29 11:20:00,77.9,65.6,30.11,East,81,4.0,13.0,66,0.00,,---,0.00,VWS V14.01,2013-01-29 16:20:00,
2013-01-29 11:22:00,78.1,65.8,30.11,SE,124,0.0,13.0,66,0.00,,---,0.00,VWS V14.01,2013-01-29 16:22:00,
2013-01-29 11:25:00,78.5,66.6,30.11,ESE,109,0.0,13.0,67,0.00,,---,0.00,VWS V14.01,2013-01-29 16:25:00,
2013-01-29 11:28:00,78.8,65.6,30.11,East,91,3.0,13.0,64,0.00,,---,0.00,VWS V14.01,2013-01-29 16:28:00,
2013-01-29 11:30:00,79.2,65.5,30.11,ESE,123,12.0,13.0,63,0.00,,---,0.00,VWS V14.01,2013-01-29 16:30:00,
2013-01-29 11:31:00,79.2,65.1,30.11,East,101,3.0,13.0,62,0.00,,---,0.00,VWS V14.01,2013-01-29 16:31:00,
2013-01-29 11:33:00,79.6,64.5,30.09,ESE,102,5.0,13.0,60,0.00,,---,0.00,VWS V14.01,2013-01-29 16:33:00,
2013-01-29 11:35:00,79.6,65.0,30.09,ESE,123,0.0,14.0,61,0.00,,---,0.00,VWS V14.01,2013-01-29 16:35:00,
2013-01-29 11:36:00,79.6,64.5,30.09,SSE,150,7.0,14.0,60,0.00,,---,0.00,VWS V14.01,2013-01-29 16:36:00,
2013-01-29 11:38:00,79.4,64.3,30.09,ESE,110,4.0,15.0,60,0.00,,---,0.00,VWS V14.01,2013-01-29 16:38:00,
2013-01-29 11:40:00,79.4,64.8,30.09,East,98,7.0,15.0,61,0.00,,---,0.00,VWS V14.01,2013-01-29 16:40:00,
2013-01-29 11:41:00,79.4,64.8,30.09,East,96,5.0,15.0,61,0.00,,---,0.00,VWS V14.01,2013-01-29 16:41:00,
2013-01-29 11:43:00,79.4,64.8,30.09,SE,139,8.0,15.0,61,0.00,,---,0.00,VWS V14.01,2013-01-29 16:43:00,
2013-01-29 11:45:00,79.6,65.4,30.09,ESE,121,0.0,15.0,62,0.00,,---,0.00,VWS V14.01,2013-01-29 16:45:00,
2013-01-29 11:46:00,79.8,65.6,30.09,ESE,114,4.0,15.0,62,0.00,,---,0.00,VWS V14.01,2013-01-29 16:46:00,
2013-01-29 11:48:00,79.9,65.3,30.09,ESE,114,9.0,15.0,61,0.00,,---,0.00,VWS V14.01,2013-01-29 16:48:00,
2013-01-29 11:50:00,80.1,65.4,30.09,ENE,64,10.0,15.0,61,0.00,,---,0.00,VWS V14.01,2013-01-29 16:50:00,
2013-01-29 11:51:00,80.1,65.0,30.09,ENE,70,4.0,15.0,60,0.00,,---,0.00,VWS V14.01,2013-01-29 16:51:00,
2013-01-29 11:53:00,80.1,65.4,30.09,SE,133,4.0,15.0,61,0.00,,---,0.00,VWS V14.01,2013-01-29 16:53:00,
2013-01-29 11:55:00,80.3,64.7,30.09,ESE,105,0.0,18.0,59,0.00,,---,0.00,VWS V14.01,2013-01-29 16:55:00,
2013-01-29 11:56:00,80.3,65.2,30.09,East,79,8.0,18.0,60,0.00,,---,0.00,VWS V14.01,2013-01-29 16:56:00,
2013-01-29 11:58:00,80.3,65.2,30.09,East,87,0.0,18.0,60,0.00,,---,0.00,VWS V14.01,2013-01-29 16:58:00,
2013-01-29 12:00:00,80.5,64.9,30.09,East,95,5.0,18.0,59,0.00,,---,0.00,VWS V14.01,2013-01-29 17:00:00,
2013-01-29 12:01:00,80.5,64.4,30.09,SE,146,2.0,18.0,58,0.00,,---,0.00,VWS V14.01,2013-01-29 17:01:00,
2013-01-29 12:03:00,80.7,64.1,30.08,ESE,111,0.0,18.0,57,0.00,,---,0.00,VWS V14.01,2013-01-29 17:03:00,
2013-01-29 12:05:00,80.9,63.8,30.08,ESE,117,1.0,15.0,56,0.00,,---,0.00,VWS V14.01,2013-01-29 17:05:00,
2013-01-29 12:06:00,81.1,64.4,30.08,SE,128,1.0,15.0,57,0.00,,---,0.00,VWS V14.01,2013-01-29 17:06:00,
2013-01-29 12:08:00,81.2,64.0,30.08,SE,125,0.0,15.0,56,0.00,,---,0.00,VWS V14.01,2013-01-29 17:08:00,
2013-01-29 12:10:00,81.4,64.2,30.08,SE,142,9.0,15.0,56,0.00,,---,0.00,VWS V14.01,2013-01-29 17:10:00,
2013-01-29 12:11:00,81.4,64.2,30.08,ESE,121,6.0,15.0,56,0.00,,---,0.00,VWS V14.01,2013-01-29 17:11:00,
2013-01-29 12:13:00,81.6,64.4,30.08,East,94,2.0,15.0,56,0.00,,---,0.00,VWS V14.01,2013-01-29 17:13:00,
2013-01-29 12:15:00,81.6,64.4,30.08,ESE,110,5.0,15.0,56,0.00,,---,0.00,VWS V14.01,2013-01-29 17:15:00,
2013-01-29 12:16:00,81.6,63.9,30.08,East,82,6.0,15.0,55,0.00,,---,0.00,VWS V14.01,2013-01-29 17:16:00,
2013-01-29 12:18:00,81.6,63.9,30.07,East,91,10.0,15.0,55,0.00,,---,0.00,VWS V14.01,2013-01-29 17:18:00,
2013-01-29 12:20:00,81.2,64.0,30.07,ESE,105,6.0,15.0,56,0.00,,---,0.00,VWS V14.01,2013-01-29 17:20:00,
2013-01-29 12:21:00,81.2,64.0,30.07,East,93,8.0,15.0,56,0.00,,---,0.00,VWS V14.01,2013-01-29 17:21:00,
2013-01-29 12:23:00,81.2,64.0,30.07,ENE,61,1.0,15.0,56,0.00,,---,0.00,VWS V14.01,2013-01-29 17:23:00,
2013-01-29 12:25:00,81.2,64.0,30.07,East,86,0.0,15.0,56,0.00,,---,0.00,VWS V14.01,2013-01-29 17:25:00,
2013-01-29 12:26:00,81.4,64.2,30.07,ENE,75,8.0,15.0,56,0.00,,---,0.00,VWS V14.01,2013-01-29 17:26:00,
2013-01-29 12:28:00,81.6,64.4,30.07,East,93,0.0,15.0,56,0.00,,---,0.00,VWS V14.01,2013-01-29 17:28:00,
2013-01-29 12:30:00,82.0,64.3,30.07,ESE,122,0.0,15.0,55,0.00,,---,0.00,VWS V14.01,2013-01-29 17:30:00,
2013-01-29 12:31:00,82.0,64.3,30.07,ESE,122,1.0,15.0,55,0.00,,---,0.00,VWS V14.01,2013-01-29 17:31:00,
2013-01-29 12:33:00,82.4,64.1,30.06,SE,124,10.0,15.0,54,0.00,,---,0.00,VWS V14.01,2013-01-29 17:33:00,
2013-01-29 12:35:00,82.6,64.8,30.06,SE,133,9.0,15.0,55,0.00,,---,0.00,VWS V14.01,2013-01-29 17:35:00,
2013-01-29 12:36:00,82.4,64.6,30.06,ESE,110,4.0,15.0,55,0.00,,---,0.00,VWS V14.01,2013-01-29 17:36:00,
2013-01-29 12:38:00,82.4,64.1,30.06,SE,130,1.0,15.0,54,0.00,,---,0.00,VWS V14.01,2013-01-29 17:38:00,
2013-01-29 12:40:00,82.4,64.1,30.06,ESE,122,1.0,15.0,54,0.00,,---,0.00,VWS V14.01,2013-01-29 17:40:00,
2013-01-29 12:41:00,82.4,64.1,30.06,East,87,5.0,15.0,54,0.00,,---,0.00,VWS V14.01,2013-01-29 17:41:00,
2013-01-29 12:42:00,82.4,64.1,30.06,NE,51,0.0,15.0,54,0.00,,---,0.00,VWS V14.01,2013-01-29 17:42:00,
2013-01-29 12:43:00,82.2,63.9,30.06,ENE,76,0.0,15.0,54,0.00,,---,0.00,VWS V14.01,2013-01-29 17:43:00,
2013-01-29 12:46:00,82.2,64.4,30.06,ESE,117,3.0,15.0,55,0.00,,---,0.00,VWS V14.01,2013-01-29 17:46:00,
2013-01-29 12:47:00,82.2,64.4,30.06,ESE,107,5.0,15.0,55,0.00,,---,0.00,VWS V14.01,2013-01-29 17:47:00,
2013-01-29 12:49:00,82.0,64.3,30.06,ENE,68,0.0,15.0,55,0.00,,---,0.00,VWS V14.01,2013-01-29 17:49:00,
2013-01-29 12:51:00,82.2,65.0,30.06,SE,139,5.0,15.0,56,0.00,,---,0.00,VWS V14.01,2013-01-29 17:51:00,
2013-01-29 12:52:00,82.2,65.0,30.06,ESE,121,1.0,15.0,56,0.00,,---,0.00,VWS V14.01,2013-01-29 17:52:00,
2013-01-29 12:54:00,82.4,64.6,30.06,SSE,149,2.0,15.0,55,0.00,,---,0.00,VWS V14.01,2013-01-29 17:54:00,
2013-01-29 12:56:00,82.8,65.0,30.06,South,180,0.0,15.0,55,0.00,,---,0.00,VWS V14.01,2013-01-29 17:56:00,
2013-01-29 12:57:00,82.8,64.5,30.06,ESE,122,0.0,15.0,54,0.00,,---,0.00,VWS V14.01,2013-01-29 17:57:00,
2013-01-29 12:59:00,83.0,64.7,30.06,ESE,122,0.0,15.0,54,0.00,,---,0.00,VWS V14.01,2013-01-29 17:59:00,
2013-01-29 13:00:00,83.4,65.0,30.05,East,98,0.0,15.0,54,0.00,,---,0.00,VWS V14.01,2013-01-29 18:00:00,
2013-01-29 13:01:00,83.2,64.8,30.06,ESE,114,0.0,15.0,54,0.00,,---,0.00,VWS V14.01,2013-01-29 18:01:00,
2013-01-29 13:02:00,83.4,65.0,30.06,ESE,121,4.0,15.0,54,0.00,,---,0.00,VWS V14.01,2013-01-29 18:02:00,
2013-01-29 13:04:00,83.4,65.0,30.05,SE,127,6.0,11.0,54,0.00,,---,0.00,VWS V14.01,2013-01-29 18:04:00,
2013-01-29 13:06:00,83.4,64.5,30.05,SE,129,5.0,11.0,53,0.00,,---,0.00,VWS V14.01,2013-01-29 18:06:00,
2013-01-29 13:07:00,83.4,64.5,30.05,South,174,3.0,11.0,53,0.00,,---,0.00,VWS V14.01,2013-01-29 18:07:00,
2013-01-29 13:09:00,83.4,64.5,30.05,South,176,2.0,11.0,53,0.00,,---,0.00,VWS V14.01,2013-01-29 18:09:00,
2013-01-29 13:11:00,83.4,64.5,30.05,SE,132,3.0,11.0,53,0.00,,---,0.00,VWS V14.01,2013-01-29 18:11:00,
2013-01-29 13:12:00,83.6,64.1,30.05,SE,127,1.0,11.0,52,0.00,,---,0.00,VWS V14.01,2013-01-29 18:12:00,
2013-01-29 13:14:00,83.6,64.1,30.05,ESE,118,0.0,11.0,52,0.00,,---,0.00,VWS V14.01,2013-01-29 18:14:00,
2013-01-29 13:16:00,83.6,63.6,30.05,ENE,77,3.0,11.0,51,0.00,,---,0.00,VWS V14.01,2013-01-29 18:16:00,
2013-01-29 13:17:00,83.6,63.6,30.04,East,91,0.0,11.0,51,0.00,,---,0.00,VWS V14.01,2013-01-29 18:17:00,
2013-01-29 13:19:00,83.8,64.3,30.04,SE,138,8.0,11.0,52,0.00,,---,0.00,VWS V14.01,2013-01-29 18:19:00,
2013-01-29 13:21:00,83.6,63.6,30.04,SE,129,9.0,12.0,51,0.00,,---,0.00,VWS V14.01,2013-01-29 18:21:00,
2013-01-29 13:22:00,83.4,64.0,30.04,East,83,8.0,12.0,52,0.00,,---,0.00,VWS V14.01,2013-01-29 18:22:00,
2013-01-29 13:24:00,83.4,64.0,30.04,East,85,6.0,12.0,52,0.00,,---,0.00,VWS V14.01,2013-01-29 18:24:00,
2013-01-29 13:26:00,83.2,64.3,30.04,ESE,108,11.0,12.0,53,0.00,,---,0.00,VWS V14.01,2013-01-29 18:26:00,
2013-01-29 13:27:00,83.4,63.4,30.04,SSE,148,4.0,12.0,51,0.00,,---,0.00,VWS V14.01,2013-01-29 18:27:00,
2013-01-29 13:29:00,83.6,63.6,30.04,East,99,2.0,12.0,51,0.00,,---,0.00,VWS V14.01,2013-01-29 18:29:00,
2013-01-29 13:31:00,83.8,63.8,30.04,East,100,5.0,12.0,51,0.00,,---,0.00,VWS V14.01,2013-01-29 18:31:00,
2013-01-29 13:32:00,83.8,63.2,30.03,ESE,118,0.0,12.0,50,0.00,,---,0.00,VWS V14.01,2013-01-29 18:32:00,
2013-01-29 13:34:00,84.0,63.4,30.03,ESE,117,0.0,12.0,50,0.00,,---,0.00,VWS V14.01,2013-01-29 18:34:00,
2013-01-29 13:36:00,84.1,63.5,30.03,ESE,117,0.0,12.0,50,0.00,,---,0.00,VWS V14.01,2013-01-29 18:36:00,
2013-01-29 13:38:00,84.3,63.7,30.03,SE,136,4.0,12.0,50,0.00,,---,0.00,VWS V14.01,2013-01-29 18:38:00,
2013-01-29 13:39:00,84.5,63.3,30.03,South,183,4.0,12.0,49,0.00,,---,0.00,VWS V14.01,2013-01-29 18:39:00,
2013-01-29 13:41:00,84.5,63.3,30.03,SE,144,9.0,12.0,49,0.00,,---,0.00,VWS V14.01,2013-01-29 18:41:00,
2013-01-29 13:43:00,84.7,63.5,30.03,ESE,115,7.0,12.0,49,0.00,,---,0.00,VWS V14.01,2013-01-29 18:43:00,
2013-01-29 13:44:00,84.5,62.7,30.03,ESE,103,0.0,12.0,48,0.00,,---,0.00,VWS V14.01,2013-01-29 18:44:00,
2013-01-29 13:46:00,84.3,63.1,30.03,ESE,103,0.0,12.0,49,0.00,,---,0.00,VWS V14.01,2013-01-29 18:46:00,
2013-01-29 13:48:00,84.1,63.5,30.03,ESE,103,0.0,12.0,50,0.00,,---,0.00,VWS V14.01,2013-01-29 18:48:00,
2013-01-29 13:49:00,84.0,62.8,30.03,ESE,102,2.0,12.0,49,0.00,,---,0.00,VWS V14.01,2013-01-29 18:49:00,
2013-01-29 13:51:00,83.8,63.2,30.03,ESE,117,4.0,12.0,50,0.00,,---,0.00,VWS V14.01,2013-01-29 18:51:00,
2013-01-29 13:53:00,83.6,63.6,30.03,ESE,120,1.0,12.0,51,0.00,,---,0.00,VWS V14.01,2013-01-29 18:53:00,
2013-01-29 13:54:00,83.4,62.8,30.03,SSE,147,6.0,12.0,50,0.00,,---,0.00,VWS V14.01,2013-01-29 18:54:00,
2013-01-29 13:56:00,83.0,63.0,30.03,East,97,4.0,12.0,51,0.00,,---,0.00,VWS V14.01,2013-01-29 18:56:00,
2013-01-29 13:58:00,83.0,62.5,30.03,ESE,120,1.0,12.0,50,0.00,,---,0.00,VWS V14.01,2013-01-29 18:58:00,
2013-01-29 13:59:00,83.0,63.0,30.03,ESE,120,0.0,12.0,51,0.00,,---,0.00,VWS V14.01,2013-01-29 18:59:00,
2013-01-29 14:00:00,83.4,63.4,30.03,ESE,119,0.0,12.0,51,0.00,,---,0.00,VWS V14.01,2013-01-29 19:00:00,
2013-01-29 14:01:00,83.0,63.0,30.03,ESE,120,0.0,12.0,51,0.00,,---,0.00,VWS V14.01,2013-01-29 19:01:00,
2013-01-29 14:03:00,83.4,63.4,30.03,ESE,119,0.0,12.0,51,0.00,,---,0.00,VWS V14.01,2013-01-29 19:03:00,
2013-01-29 14:04:00,83.6,63.0,30.03,ENE,77,5.0,9.0,50,0.00,,---,0.00,VWS V14.01,2013-01-29 19:04:00,
2013-01-29 14:06:00,83.8,62.6,30.03,East,89,12.0,12.0,49,0.00,,---,0.00,VWS V14.01,2013-01-29 19:06:00,
2013-01-29 14:08:00,84.0,63.4,30.03,SE,139,5.0,12.0,50,0.00,,---,0.00,VWS V14.01,2013-01-29 19:08:00,
2013-01-29 14:09:00,84.0,62.8,30.03,ENE,72,6.0,12.0,49,0.00,,---,0.00,VWS V14.01,2013-01-29 19:09:00,
2013-01-29 14:11:00,84.1,62.3,30.03,ESE,121,8.0,12.0,48,0.00,,---,0.00,VWS V14.01,2013-01-29 19:11:00,
2013-01-29 14:13:00,84.1,62.3,30.03,ESE,121,0.0,12.0,48,0.00,,---,0.00,VWS V14.01,2013-01-29 19:13:00,
2013-01-29 14:14:00,84.1,62.9,30.03,ESE,121,0.0,12.0,49,0.00,,---,0.00,VWS V14.01,2013-01-29 19:14:00,
2013-01-29 14:16:00,84.3,63.1,30.03,ESE,116,0.0,12.0,49,0.00,,---,0.00,VWS V14.01,2013-01-29 19:16:00,
2013-01-29 14:17:00,84.1,62.3,30.03,East,83,6.0,12.0,48,0.00,,---,0.00,VWS V14.01,2013-01-29 19:17:00,
2013-01-29 14:18:00,84.1,62.9,30.03,ESE,107,0.0,12.0,49,0.00,,---,0.00,VWS V14.01,2013-01-29 19:18:00,
2013-01-29 14:19:00,84.1,63.5,30.03,ESE,111,6.0,12.0,50,0.00,,---,0.00,VWS V14.01,2013-01-29 19:19:00,
2013-01-29 14:21:00,84.0,62.8,30.03,SE,124,0.0,12.0,49,0.00,,---,0.00,VWS V14.01,2013-01-29 19:21:00,
2013-01-29 14:22:00,84.0,62.8,30.03,East,90,0.0,12.0,49,0.00,,---,0.00,VWS V14.01,2013-01-29 19:22:00,
2013-01-29 14:23:00,84.0,62.8,30.03,East,82,3.0,12.0,49,0.00,,---,0.00,VWS V14.01,2013-01-29 19:23:00,
2013-01-29 14:25:00,83.8,62.6,30.03,East,94,4.0,12.0,49,0.00,,---,0.00,VWS V14.01,2013-01-29 19:25:00,
2013-01-29 14:26:00,83.6,63.0,30.03,ESE,115,4.0,12.0,50,0.00,,---,0.00,VWS V14.01,2013-01-29 19:26:00,
2013-01-29 14:27:00,83.4,62.8,30.03,East,84,5.0,12.0,50,0.00,,---,0.00,VWS V14.01,2013-01-29 19:27:00,
2013-01-29 14:28:00,83.4,62.8,30.03,East,89,3.0,12.0,50,0.00,,---,0.00,VWS V14.01,2013-01-29 19:28:00,
2013-01-29 14:30:00,83.2,63.2,30.03,ENE,71,4.0,12.0,51,0.00,,---,0.00,VWS V14.01,2013-01-29 19:30:00,
2013-01-29 14:31:00,83.0,62.5,30.03,East,81,0.0,12.0,50,0.00,,---,0.00,VWS V14.01,2013-01-29 19:31:00,
2013-01-29 14:32:00,82.8,62.8,30.03,ESE,118,0.0,12.0,51,0.00,,---,0.00,VWS V14.01,2013-01-29 19:32:00,
2013-01-29 14:33:00,82.8,62.8,30.03,ESE,115,0.0,12.0,51,0.00,,---,0.00,VWS V14.01,2013-01-29 19:33:00,
2013-01-29 14:35:00,82.6,62.7,30.03,ESE,115,0.0,12.0,51,0.00,,---,0.00,VWS V14.01,2013-01-29 19:35:00,
2013-01-29 14:36:00,82.8,62.8,30.03,ESE,115,5.0,12.0,51,0.00,,---,0.00,VWS V14.01,2013-01-29 19:36:00,
2013-01-29 14:37:00,82.8,62.8,30.03,ESE,115,0.0,12.0,51,0.00,,---,0.00,VWS V14.01,2013-01-29 19:37:00,
2013-01-29 14:38:00,82.8,62.8,30.03,ESE,115,0.0,12.0,51,0.00,,---,0.00,VWS V14.01,2013-01-29 19:38:00,
2013-01-29 14:40:00,83.0,62.5,30.03,ESE,114,0.0,12.0,50,0.00,,---,0.00,VWS V14.01,2013-01-29 19:40:00,
2013-01-29 14:41:00,83.2,62.7,30.03,ESE,114,0.0,12.0,50,0.00,,---,0.00,VWS V14.01,2013-01-29 19:41:00,
2013-01-29 14:42:00,83.4,62.8,30.03,SE,145,7.0,12.0,50,0.00,,---,0.00,VWS V14.01,2013-01-29 19:42:00,
2013-01-29 14:43:00,83.4,62.8,30.03,ENE,74,6.0,12.0,50,0.00,,---,0.00,VWS V14.01,2013-01-29 19:43:00,
2013-01-29 14:45:00,83.4,62.8,30.03,ENE,78,0.0,12.0,50,0.00,,---,0.00,VWS V14.01,2013-01-29 19:45:00,
2013-01-29 14:46:00,83.4,62.8,30.03,ESE,121,0.0,12.0,50,0.00,,---,0.00,VWS V14.01,2013-01-29 19:46:00,
2013-01-29 14:47:00,83.4,62.3,30.02,SE,139,0.0,12.0,49,0.00,,---,0.00,VWS V14.01,2013-01-29 19:47:00,
2013-01-29 14:48:00,83.6,63.0,30.02,SE,139,0.0,12.0,50,0.00,,---,0.00,VWS V14.01,2013-01-29 19:48:00,
2013-01-29 14:50:00,83.6,63.0,30.02,SE,129,0.0,12.0,50,0.00,,---,0.00,VWS V14.01,2013-01-29 19:50:00,
2013-01-29 14:51:00,83.6,63.0,30.02,SE,129,0.0,12.0,50,0.00,,---,0.00,VWS V14.01,2013-01-29 19:51:00,
2013-01-29 14:52:00,83.6,63.0,30.02,SE,129,4.0,12.0,50,0.00,,---,0.00,VWS V14.01,2013-01-29 19:52:00,
2013-01-29 14:53:00,83.6,63.0,30.02,ESE,115,5.0,12.0,50,0.00,,---,0.00,VWS V14.01,2013-01-29 19:53:00,
2013-01-29 14:55:00,83.4,62.8,30.02,ESE,110,0.0,12.0,50,0.00,,---,0.00,VWS V14.01,2013-01-29 19:55:00,
2013-01-29 14:57:00,83.4,63.4,30.02,ESE,110,0.0,12.0,51,0.00,,---,0.00,VWS V14.01,2013-01-29 19:57:00,
2013-01-29 14:58:00,83.4,63.4,30.02,ESE,110,0.0,12.0,51,0.00,,---,0.00,VWS V14.01,2013-01-29 19:58:00,
2013-01-29 15:00:00,83.4,65.0,30.02,South,181,2.0,12.0,54,0.00,,---,0.00,VWS V14.01,2013-01-29 20:00:00,
2013-01-29 15:02:00,83.4,66.1,30.02,South,180,0.0,12.0,56,0.00,,---,0.00,VWS V14.01,2013-01-29 20:02:00,
2013-01-29 15:03:00,83.4,66.1,30.02,South,180,0.0,12.0,56,0.00,,---,0.00,VWS V14.01,2013-01-29 20:03:00,
2013-01-29 15:05:00,83.0,66.2,30.02,SW,231,1.0,7.0,57,0.00,,---,0.00,VWS V14.01,2013-01-29 20:05:00,
2013-01-29 15:07:00,82.8,67.0,30.02,SW,226,1.0,7.0,59,0.00,,---,0.00,VWS V14.01,2013-01-29 20:07:00,
2013-01-29 15:08:00,82.8,66.5,30.02,SW,218,5.0,7.0,58,0.00,,---,0.00,VWS V14.01,2013-01-29 20:08:00,
2013-01-29 15:10:00,82.6,66.3,30.02,SW,215,0.0,8.0,58,0.00,,---,0.00,VWS V14.01,2013-01-29 20:10:00,
2013-01-29 15:12:00,82.4,66.7,30.02,South,189,5.0,8.0,59,0.00,,---,0.00,VWS V14.01,2013-01-29 20:12:00,
2013-01-29 15:13:00,82.4,66.7,30.02,South,189,5.0,8.0,59,0.00,,---,0.00,VWS V14.01,2013-01-29 20:13:00,
2013-01-29 15:15:00,82.2,66.0,30.02,SW,220,5.0,11.0,58,0.00,,---,0.00,VWS V14.01,2013-01-29 20:15:00,
2013-01-29 15:17:00,81.8,66.1,30.02,SW,217,0.0,11.0,59,0.00,,---,0.00,VWS V14.01,2013-01-29 20:17:00,
2013-01-29 15:18:00,81.8,66.6,30.02,SW,220,8.0,11.0,60,0.00,,---,0.00,VWS V14.01,2013-01-29 20:18:00,
2013-01-29 15:20:00,81.6,66.4,30.02,SSW,213,0.0,11.0,60,0.00,,---,0.00,VWS V14.01,2013-01-29 20:20:00,
2013-01-29 15:22:00,81.6,66.4,30.02,South,187,0.0,11.0,60,0.00,,---,0.00,VWS V14.01,2013-01-29 20:22:00,
2013-01-29 15:23:00,81.6,66.4,30.02,South,187,2.0,11.0,60,0.00,,---,0.00,VWS V14.01,2013-01-29 20:23:00,
2013-01-29 15:24:00,81.6,66.4,30.02,South,187,1.0,11.0,60,0.00,,---,0.00,VWS V14.01,2013-01-29 20:24:00,
2013-01-29 15:25:00,81.6,66.4,30.02,ESE,120,3.0,11.0,60,0.00,,---,0.00,VWS V14.01,2013-01-29 20:25:00,
2013-01-29 15:27:00,81.6,66.4,30.02,SE,124,0.0,11.0,60,0.00,,---,0.00,VWS V14.01,2013-01-29 20:27:00,
2013-01-29 15:28:00,81.6,66.9,30.02,South,181,1.0,11.0,61,0.00,,---,0.00,VWS V14.01,2013-01-29 20:28:00,
2013-01-29 15:29:00,81.6,66.4,30.02,South,182,5.0,11.0,60,0.00,,---,0.00,VWS V14.01,2013-01-29 20:29:00,
2013-01-29 15:30:00,81.6,66.4,30.02,South,181,0.0,11.0,60,0.00,,---,0.00,VWS V14.01,2013-01-29 20:30:00,
2013-01-29 15:32:00,81.6,66.4,30.01,South,179,0.0,11.0,60,0.00,,---,0.00,VWS V14.01,2013-01-29 20:32:00,
2013-01-29 15:33:00,81.6,66.4,30.01,South,179,6.0,11.0,60,0.00,,---,0.00,VWS V14.01,2013-01-29 20:33:00,
2013-01-29 15:34:00,81.6,66.4,30.01,South,179,0.0,11.0,60,0.00,,---,0.00,VWS V14.01,2013-01-29 20:34:00,
2013-01-29 15:35:00,81.6,66.4,30.01,South,179,2.0,11.0,60,0.00,,---,0.00,VWS V14.01,2013-01-29 20:35:00,
2013-01-29 15:37:00,81.6,66.4,30.01,South,179,0.0,11.0,60,0.00,,---,0.00,VWS V14.01,2013-01-29 20:37:00,
2013-01-29 15:38:00,81.6,66.4,30.01,South,178,4.0,11.0,60,0.00,,---,0.00,VWS V14.01,2013-01-29 20:38:00,
2013-01-29 15:39:00,81.6,66.4,30.01,South,177,0.0,11.0,60,0.00,,---,0.00,VWS V14.01,2013-01-29 20:39:00,
2013-01-29 15:40:00,81.4,66.7,30.01,SSW,207,4.0,11.0,61,0.00,,---,0.00,VWS V14.01,2013-01-29 20:40:00,
2013-01-29 15:42:00,81.2,66.5,30.01,SE,137,4.0,11.0,61,0.00,,---,0.00,VWS V14.01,2013-01-29 20:42:00,
2013-01-29 15:43:00,81.1,66.4,30.01,South,178,4.0,11.0,61,0.00,,---,0.00,VWS V14.01,2013-01-29 20:43:00,
2013-01-29 15:44:00,81.1,66.4,30.01,South,178,0.0,11.0,61,0.00,,---,0.00,VWS V14.01,2013-01-29 20:44:00,
2013-01-29 15:45:00,81.1,66.4,30.01,SSW,212,0.0,11.0,61,0.00,,---,0.00,VWS V14.01,2013-01-29 20:45:00,
2013-01-29 15:47:00,80.9,66.2,30.01,SSW,212,3.0,11.0,61,0.00,,---,0.00,VWS V14.01,2013-01-29 20:47:00,
2013-01-29 15:48:00,80.9,66.2,30.01,SSW,212,0.0,11.0,61,0.00,,---,0.00,VWS V14.01,2013-01-29 20:48:00,
2013-01-29 15:49:00,80.9,66.2,30.01,SSW,211,0.0,11.0,61,0.00,,---,0.00,VWS V14.01,2013-01-29 20:49:00,
2013-01-29 15:50:00,80.9,66.7,30.01,SSW,207,0.0,11.0,62,0.00,,---,0.00,VWS V14.01,2013-01-29 20:50:00,
2013-01-29 15:52:00,80.9,66.7,30.01,South,189,0.0,11.0,62,0.00,,---,0.00,VWS V14.01,2013-01-29 20:52:00,
2013-01-29 15:53:00,80.9,66.7,30.01,ESE,103,0.0,11.0,62,0.00,,---,0.00,VWS V14.01,2013-01-29 20:53:00,
2013-01-29 15:54:00,80.9,66.7,30.01,ESE,103,0.0,11.0,62,0.00,,---,0.00,VWS V14.01,2013-01-29 20:54:00,
2013-01-29 15:55:00,80.7,66.0,30.01,ESE,109,0.0,11.0,61,0.00,,---,0.00,VWS V14.01,2013-01-29 20:55:00,
2013-01-29 15:57:00,80.7,66.0,30.01,SSW,212,5.0,11.0,61,0.00,,---,0.00,VWS V14.01,2013-01-29 20:57:00,
2013-01-29 15:58:00,80.5,66.3,30.01,SSW,211,4.0,11.0,62,0.00,,---,0.00,VWS V14.01,2013-01-29 20:58:00,
2013-01-29 15:59:00,80.5,66.3,30.01,SSW,210,1.0,11.0,62,0.00,,---,0.00,VWS V14.01,2013-01-29 20:59:00,
2013-01-29 16:00:00,80.5,66.3,30.01,SSW,210,0.0,11.0,62,0.00,,---,0.00,VWS V14.01,2013-01-29 21:00:00,
2013-01-29 16:02:00,80.3,66.1,30.01,South,173,3.0,11.0,62,0.00,,---,0.00,VWS V14.01,2013-01-29 21:02:00,
2013-01-29 16:03:00,80.3,66.1,30.01,ESE,113,9.0,9.0,62,0.00,,---,0.00,VWS V14.01,2013-01-29 21:03:00,
2013-01-29 16:04:00,80.3,66.1,30.01,East,101,0.0,9.0,62,0.00,,---,0.00,VWS V14.01,2013-01-29 21:04:00,
2013-01-29 16:06:00,80.1,65.9,30.01,SSE,150,0.0,9.0,62,0.00,,---,0.00,VWS V14.01,2013-01-29 21:06:00,
2013-01-29 16:08:00,79.9,65.7,30.01,SSE,150,0.0,9.0,62,0.00,,---,0.00,VWS V14.01,2013-01-29 21:08:00,
2013-01-29 16:09:00,79.9,65.7,30.01,SSE,159,0.0,9.0,62,0.00,,---,0.00,VWS V14.01,2013-01-29 21:09:00,
2013-01-29 16:11:00,79.8,66.1,30.01,SSE,156,0.0,9.0,63,0.00,,---,0.00,VWS V14.01,2013-01-29 21:11:00,
2013-01-29 16:13:00,79.6,65.9,30.01,South,173,1.0,9.0,63,0.00,,---,0.00,VWS V14.01,2013-01-29 21:13:00,
2013-01-29 16:14:00,79.4,65.7,30.01,South,176,0.0,9.0,63,0.00,,---,0.00,VWS V14.01,2013-01-29 21:14:00,
2013-01-29 16:16:00,79.2,65.5,30.01,ESE,119,0.0,9.0,63,0.00,,---,0.00,VWS V14.01,2013-01-29 21:16:00,
2013-01-29 16:18:00,79.2,65.5,30.01,SE,131,0.0,9.0,63,0.00,,---,0.00,VWS V14.01,2013-01-29 21:18:00,
2013-01-29 16:19:00,79.0,65.3,30.01,SSE,149,2.0,9.0,63,0.00,,---,0.00,VWS V14.01,2013-01-29 21:19:00,
2013-01-29 16:21:00,78.8,65.6,30.01,SSE,167,1.0,9.0,64,0.00,,---,0.00,VWS V14.01,2013-01-29 21:21:00,
2013-01-29 16:23:00,78.8,65.2,30.01,SSE,167,0.0,9.0,63,0.00,,---,0.00,VWS V14.01,2013-01-29 21:23:00,
2013-01-29 16:24:00,78.8,65.6,30.01,SSE,167,0.0,9.0,64,0.00,,---,0.00,VWS V14.01,2013-01-29 21:24:00,
2013-01-29 16:26:00,78.6,65.4,30.01,SSE,167,0.0,9.0,64,0.00,,---,0.00,VWS V14.01,2013-01-29 21:26:00,
2013-01-29 16:28:00,78.6,65.4,30.01,SSE,167,0.0,9.0,64,0.00,,---,0.00,VWS V14.01,2013-01-29 21:28:00,
2013-01-29 16:29:00,78.6,65.4,30.01,SSE,167,0.0,9.0,64,0.00,,---,0.00,VWS V14.01,2013-01-29 21:29:00,
2013-01-29 16:31:00,78.6,65.4,30.01,SSE,167,0.0,9.0,64,0.00,,---,0.00,VWS V14.01,2013-01-29 21:31:00,
2013-01-29 16:33:00,78.6,65.4,30.02,SSE,167,0.0,9.0,64,0.00,,---,0.00,VWS V14.01,2013-01-29 21:33:00,
2013-01-29 16:34:00,78.6,65.4,30.02,SSE,167,0.0,9.0,64,0.00,,---,0.00,VWS V14.01,2013-01-29 21:34:00,
2013-01-29 16:35:00,78.6,65.9,30.02,SSE,167,0.0,9.0,65,0.00,,---,0.00,VWS V14.01,2013-01-29 21:35:00,
2013-01-29 16:36:00,78.6,65.4,30.02,SSE,167,0.0,9.0,64,0.00,,---,0.00,VWS V14.01,2013-01-29 21:36:00,
2013-01-29 16:38:00,78.6,65.4,30.02,SSE,167,0.0,9.0,64,0.00,,---,0.00,VWS V14.01,2013-01-29 21:38:00,
2013-01-29 16:39:00,78.6,65.4,30.02,SSE,165,0.0,9.0,64,0.00,,---,0.00,VWS V14.01,2013-01-29 21:39:00,
2013-01-29 16:40:00,78.6,65.4,30.02,SSE,166,5.0,9.0,64,0.00,,---,0.00,VWS V14.01,2013-01-29 21:40:00,
2013-01-29 16:41:00,78.6,65.4,30.02,South,171,4.0,9.0,64,0.00,,---,0.00,VWS V14.01,2013-01-29 21:41:00,
2013-01-29 16:43:00,78.5,65.3,30.02,South,170,1.0,9.0,64,0.00,,---,0.00,VWS V14.01,2013-01-29 21:43:00,
2013-01-29 16:44:00,78.5,65.3,30.02,South,170,0.0,9.0,64,0.00,,---,0.00,VWS V14.01,2013-01-29 21:44:00,
2013-01-29 16:45:00,78.5,65.3,30.02,South,172,0.0,9.0,64,0.00,,---,0.00,VWS V14.01,2013-01-29 21:45:00,
2013-01-29 16:46:00,78.3,65.1,30.02,SE,132,0.0,9.0,64,0.00,,---,0.00,VWS V14.01,2013-01-29 21:46:00,
2013-01-29 16:48:00,78.3,65.1,30.01,SE,139,0.0,9.0,64,0.00,,---,0.00,VWS V14.01,2013-01-29 21:48:00,
2013-01-29 16:49:00,78.3,65.1,30.01,SE,131,1.0,9.0,64,0.00,,---,0.00,VWS V14.01,2013-01-29 21:49:00,
2013-01-29 16:50:00,78.1,64.9,30.01,SE,131,0.0,9.0,64,0.00,,---,0.00,VWS V14.01,2013-01-29 21:50:00,
2013-01-29 16:51:00,78.1,65.4,30.01,SE,131,0.0,9.0,65,0.00,,---,0.00,VWS V14.01,2013-01-29 21:51:00,
2013-01-29 16:53:00,78.1,65.4,30.01,South,176,0.0,9.0,65,0.00,,---,0.00,VWS V14.01,2013-01-29 21:53:00,
2013-01-29 16:54:00,78.1,65.4,30.01,South,176,0.0,9.0,65,0.00,,---,0.00,VWS V14.01,2013-01-29 21:54:00,
2013-01-29 16:55:00,78.1,65.4,30.01,South,176,0.0,9.0,65,0.00,,---,0.00,VWS V14.01,2013-01-29 21:55:00,
2013-01-29 16:56:00,77.9,65.2,30.01,South,176,0.0,9.0,65,0.00,,---,0.00,VWS V14.01,2013-01-29 21:56:00,
2013-01-29 16:58:00,77.9,65.2,30.01,ESE,120,0.0,9.0,65,0.00,,---,0.00,VWS V14.01,2013-01-29 21:58:00,
2013-01-29 16:59:00,77.9,65.2,30.01,ESE,121,0.0,9.0,65,0.00,,---,0.00,VWS V14.01,2013-01-29 21:59:00,
2013-01-29 17:00:00,77.9,65.2,30.01,ESE,122,4.0,9.0,65,0.00,,---,0.00,VWS V14.01,2013-01-29 22:00:00,
2013-01-29 17:01:00,77.9,65.2,30.01,SE,139,0.0,9.0,65,0.00,,---,0.00,VWS V14.01,2013-01-29 22:01:00,
2013-01-29 17:03:00,77.7,65.0,30.01,SE,132,0.0,1.0,65,0.00,,---,0.00,VWS V14.01,2013-01-29 22:03:00,
2013-01-29 17:04:00,77.7,65.0,30.01,SE,132,0.0,1.0,65,0.00,,---,0.00,VWS V14.01,2013-01-29 22:04:00,
2013-01-29 17:05:00,77.7,65.0,30.01,ESE,108,0.0,4.0,65,0.00,,---,0.00,VWS V14.01,2013-01-29 22:05:00,
2013-01-29 17:06:00,77.7,65.0,30.01,ESE,105,0.0,4.0,65,0.00,,---,0.00,VWS V14.01,2013-01-29 22:06:00,
2013-01-29 17:08:00,77.7,65.0,30.01,SE,139,0.0,5.0,65,0.00,,---,0.00,VWS V14.01,2013-01-29 22:08:00,
2013-01-29 17:09:00,77.7,65.0,30.01,SE,139,1.0,5.0,65,0.00,,---,0.00,VWS V14.01,2013-01-29 22:09:00,
2013-01-29 17:10:00,77.7,65.0,30.01,SE,139,0.0,5.0,65,0.00,,---,0.00,VWS V14.01,2013-01-29 22:10:00,
2013-01-29 17:11:00,77.7,65.0,30.01,SE,139,0.0,5.0,65,0.00,,---,0.00,VWS V14.01,2013-01-29 22:11:00,
2013-01-29 17:13:00,77.7,65.0,30.01,SE,139,2.0,5.0,65,0.00,,---,0.00,VWS V14.01,2013-01-29 22:13:00,
2013-01-29 17:14:00,77.9,65.2,30.01,SE,136,1.0,5.0,65,0.00,,---,0.00,VWS V14.01,2013-01-29 22:14:00,
2013-01-29 17:15:00,77.9,65.2,30.01,ESE,113,6.0,6.0,65,0.00,,---,0.00,VWS V14.01,2013-01-29 22:15:00,
2013-01-29 17:16:00,77.9,65.2,30.01,ESE,113,0.0,6.0,65,0.00,,---,0.00,VWS V14.01,2013-01-29 22:16:00,
2013-01-29 17:18:00,77.9,65.2,30.01,ESE,115,0.0,6.0,65,0.00,,---,0.00,VWS V14.01,2013-01-29 22:18:00,
2013-01-29 17:19:00,78.1,65.4,30.01,ESE,113,1.0,6.0,65,0.00,,---,0.00,VWS V14.01,2013-01-29 22:19:00,
2013-01-29 17:20:00,78.1,64.9,30.01,ESE,115,4.0,7.0,64,0.00,,---,0.00,VWS V14.01,2013-01-29 22:20:00,
2013-01-29 17:21:00,78.1,64.9,30.01,SE,126,0.0,7.0,64,0.00,,---,0.00,VWS V14.01,2013-01-29 22:21:00,
2013-01-29 17:23:00,78.1,64.9,30.01,SE,126,0.0,7.0,64,0.00,,---,0.00,VWS V14.01,2013-01-29 22:23:00,
2013-01-29 17:24:00,78.1,65.4,30.01,SE,126,0.0,7.0,65,0.00,,---,0.00,VWS V14.01,2013-01-29 22:24:00,
2013-01-29 17:25:00,78.1,64.9,30.01,SE,129,0.0,7.0,64,0.00,,---,0.00,VWS V14.01,2013-01-29 22:25:00,
2013-01-29 17:27:00,78.1,64.9,30.01,SE,131,1.0,7.0,64,0.00,,---,0.00,VWS V14.01,2013-01-29 22:27:00,
2013-01-29 17:28:00,78.1,64.9,30.01,SE,131,0.0,7.0,64,0.00,,---,0.00,VWS V14.01,2013-01-29 22:28:00,
2013-01-29 17:29:00,77.9,64.8,30.01,SE,131,0.0,7.0,64,0.00,,---,0.00,VWS V14.01,2013-01-29 22:29:00,
2013-01-29 17:30:00,77.9,64.8,30.01,SE,131,0.0,7.0,64,0.00,,---,0.00,VWS V14.01,2013-01-29 22:30:00,
2013-01-29 17:32:00,77.9,64.8,30.01,SE,131,0.0,7.0,64,0.00,,---,0.00,VWS V14.01,2013-01-29 22:32:00,
2013-01-29 17:33:00,77.7,64.6,30.01,SE,131,0.0,7.0,64,0.00,,---,0.00,VWS V14.01,2013-01-29 22:33:00,
2013-01-29 17:34:00,77.7,65.0,30.01,SE,131,0.0,7.0,65,0.00,,---,0.00,VWS V14.01,2013-01-29 22:34:00,
2013-01-29 17:35:00,77.7,65.0,30.01,SE,131,0.0,7.0,65,0.00,,---,0.00,VWS V14.01,2013-01-29 22:35:00,
2013-01-29 17:37:00,77.6,64.9,30.01,SE,131,0.0,7.0,65,0.00,,---,0.00,VWS V14.01,2013-01-29 22:37:00,
2013-01-29 17:39:00,77.4,64.7,30.01,SE,128,3.0,7.0,65,0.00,,---,0.00,VWS V14.01,2013-01-29 22:39:00,
2013-01-29 17:40:00,77.4,64.7,30.01,SE,128,0.0,7.0,65,0.00,,---,0.00,VWS V14.01,2013-01-29 22:40:00,
2013-01-29 17:42:00,77.2,64.5,30.01,SE,128,0.0,7.0,65,0.00,,---,0.00,VWS V14.01,2013-01-29 22:42:00,
2013-01-29 17:44:00,77.2,64.5,30.01,SE,128,0.0,7.0,65,0.00,,---,0.00,VWS V14.01,2013-01-29 22:44:00,
2013-01-29 17:45:00,77.0,64.8,30.01,SE,128,0.0,7.0,66,0.00,,---,0.00,VWS V14.01,2013-01-29 22:45:00,
2013-01-29 17:47:00,77.0,64.8,30.01,SE,128,0.0,7.0,66,0.00,,---,0.00,VWS V14.01,2013-01-29 22:47:00,
2013-01-29 17:49:00,76.8,64.6,30.02,SE,128,0.0,7.0,66,0.00,,---,0.00,VWS V14.01,2013-01-29 22:49:00,
2013-01-29 17:51:00,76.8,64.6,30.02,SE,128,0.0,7.0,66,0.00,,---,0.00,VWS V14.01,2013-01-29 22:51:00,
2013-01-29 17:52:00,76.7,64.5,30.02,SE,128,0.0,7.0,66,0.00,,---,0.00,VWS V14.01,2013-01-29 22:52:00,
2013-01-29 17:54:00,76.7,64.5,30.02,SE,128,0.0,7.0,66,0.00,,---,0.00,VWS V14.01,2013-01-29 22:54:00,
2013-01-29 17:56:00,76.5,64.7,30.02,SE,128,0.0,7.0,67,0.00,,---,0.00,VWS V14.01,2013-01-29 22:56:00,
2013-01-29 17:57:00,76.5,64.7,30.02,SE,128,0.0,7.0,67,0.00,,---,0.00,VWS V14.01,2013-01-29 22:57:00,
2013-01-29 17:59:00,76.3,64.6,30.02,SE,128,1.0,7.0,67,0.00,,---,0.00,VWS V14.01,2013-01-29 22:59:00,
2013-01-29 18:00:00,76.0,64.3,30.02,SE,128,0.0,7.0,67,0.00,,---,0.00,VWS V14.01,2013-01-29 23:00:00,
2013-01-29 18:01:00,76.1,64.4,30.02,SE,128,0.0,7.0,67,0.00,,---,0.00,VWS V14.01,2013-01-29 23:01:00,
2013-01-29 18:02:00,76.1,64.4,30.02,SE,128,0.0,7.0,67,0.00,,---,0.00,VWS V14.01,2013-01-29 23:02:00,
2013-01-29 18:04:00,76.0,64.3,30.02,SE,128,0.0,0.0,67,0.00,,---,0.00,VWS V14.01,2013-01-29 23:04:00,
2013-01-29 18:06:00,75.8,64.5,30.02,SE,128,0.0,1.0,68,0.00,,---,0.00,VWS V14.01,2013-01-29 23:06:00,
2013-01-29 18:07:00,75.8,64.5,30.02,SE,128,0.0,1.0,68,0.00,,---,0.00,VWS V14.01,2013-01-29 23:07:00,
2013-01-29 18:09:00,75.6,64.3,30.02,SE,128,0.0,1.0,68,0.00,,---,0.00,VWS V14.01,2013-01-29 23:09:00,
2013-01-29 18:11:00,75.6,64.3,30.02,SE,128,0.0,1.0,68,0.00,,---,0.00,VWS V14.01,2013-01-29 23:11:00,
2013-01-29 18:12:00,75.6,64.3,30.02,SE,128,0.0,1.0,68,0.00,,---,0.00,VWS V14.01,2013-01-29 23:12:00,
2013-01-29 18:14:00,75.4,64.5,30.02,SE,128,0.0,1.0,69,0.00,,---,0.00,VWS V14.01,2013-01-29 23:14:00,
2013-01-29 18:16:00,75.3,64.4,30.02,SE,128,0.0,1.0,69,0.00,,---,0.00,VWS V14.01,2013-01-29 23:16:00,
2013-01-29 18:17:00,75.3,64.4,30.02,SE,128,6.0,6.0,69,0.00,,---,0.00,VWS V14.01,2013-01-29 23:17:00,
2013-01-29 18:19:00,75.1,64.2,30.01,SE,128,0.0,6.0,69,0.00,,---,0.00,VWS V14.01,2013-01-29 23:19:00,
2013-01-29 18:21:00,75.1,64.2,30.01,SE,128,0.0,6.0,69,0.00,,---,0.00,VWS V14.01,2013-01-29 23:21:00,
2013-01-29 18:22:00,75.1,64.2,30.01,SE,128,0.0,6.0,69,0.00,,---,0.00,VWS V14.01,2013-01-29 23:22:00,
2013-01-29 18:24:00,74.9,64.1,30.01,SE,128,0.0,6.0,69,0.00,,---,0.00,VWS V14.01,2013-01-29 23:24:00,
2013-01-29 18:30:00,74.7,64.3,30.01,SE,128,0.0,0.0,70,0.00,,---,0.00,VWS V14.01,2013-01-29 23:30:00,
2013-01-29 18:35:00,74.6,64.2,30.01,SE,128,0.0,1.0,70,0.00,,---,0.00,VWS V14.01,2013-01-29 23:35:00,
2013-01-29 18:40:00,74.4,64.0,30.01,SE,128,0.0,1.0,70,0.00,,---,0.00,VWS V14.01,2013-01-29 23:40:00,
2013-01-29 18:45:00,74.2,64.2,30.01,SE,128,0.0,1.0,71,0.00,,---,0.00,VWS V14.01,2013-01-29 23:45:00,
2013-01-29 18:50:00,74.0,64.0,30.02,SE,128,0.0,1.0,71,0.00,,---,0.00,VWS V14.01,2013-01-29 23:50:00,
2013-01-29 18:55:00,73.9,64.3,30.02,SE,128,0.0,1.0,72,0.00,,---,0.00,VWS V14.01,2013-01-29 23:55:00,
2013-01-29 19:00:00,73.7,64.5,30.02,SE,128,0.0,1.0,73,0.00,,---,0.00,VWS V14.01,2013-01-30 00:00:00,
2013-01-29 19:05:00,73.7,64.9,30.03,SE,128,0.0,0.0,74,0.00,,---,0.00,VWS V14.01,2013-01-30 00:05:00,
2013-01-29 19:10:00,73.5,65.1,30.03,SE,128,0.0,1.0,75,0.00,,---,0.00,VWS V14.01,2013-01-30 00:10:00,
2013-01-29 19:15:00,73.5,65.5,30.03,SE,128,0.0,1.0,76,0.00,,---,0.00,VWS V14.01,2013-01-30 00:15:00,
2013-01-29 19:20:00,73.5,65.5,30.02,SE,127,0.0,3.0,76,0.00,,---,0.00,VWS V14.01,2013-01-30 00:20:00,
2013-01-29 19:21:00,73.5,65.5,30.02,SE,127,0.0,3.0,76,0.00,,---,0.00,VWS V14.01,2013-01-30 00:21:00,
2013-01-29 19:25:00,73.3,65.7,30.02,SE,127,0.0,4.0,77,0.00,,---,0.00,VWS V14.01,2013-01-30 00:25:00,
2013-01-29 19:26:00,73.3,65.7,30.02,SE,127,0.0,4.0,77,0.00,,---,0.00,VWS V14.01,2013-01-30 00:26:00,
2013-01-29 19:30:00,73.2,65.6,30.02,SE,127,0.0,4.0,77,0.00,,---,0.00,VWS V14.01,2013-01-30 00:30:00,
2013-01-29 19:31:00,73.2,65.6,30.02,SE,127,0.0,4.0,77,0.00,,---,0.00,VWS V14.01,2013-01-30 00:31:00,
2013-01-29 19:35:00,73.0,65.7,30.02,SE,127,0.0,4.0,78,0.00,,---,0.00,VWS V14.01,2013-01-30 00:35:00,
2013-01-29 19:36:00,73.0,65.7,30.02,SE,127,0.0,4.0,78,0.00,,---,0.00,VWS V14.01,2013-01-30 00:36:00,
2013-01-29 19:40:00,72.8,65.6,30.02,SE,127,0.0,5.0,78,0.00,,---,0.00,VWS V14.01,2013-01-30 00:40:00,
2013-01-29 19:41:00,72.8,65.6,30.02,SE,127,0.0,5.0,78,0.00,,---,0.00,VWS V14.01,2013-01-30 00:41:00,
2013-01-29 19:45:00,72.7,65.4,30.02,SE,127,2.0,7.0,78,0.00,,---,0.00,VWS V14.01,2013-01-30 00:45:00,
2013-01-29 19:46:00,72.7,65.8,30.02,SE,127,0.0,7.0,79,0.00,,---,0.00,VWS V14.01,2013-01-30 00:46:00,
2013-01-29 19:50:00,72.5,65.6,30.02,SE,127,0.0,7.0,79,0.00,,---,0.00,VWS V14.01,2013-01-30 00:50:00,
2013-01-29 19:51:00,72.5,65.6,30.02,SE,127,0.0,7.0,79,0.00,,---,0.00,VWS V14.01,2013-01-30 00:51:00,
2013-01-29 19:55:00,72.5,65.6,30.02,SE,125,0.0,8.0,79,0.00,,---,0.00,VWS V14.01,2013-01-30 00:55:00,
2013-01-29 19:56:00,72.5,65.6,30.02,SE,125,0.0,8.0,79,0.00,,---,0.00,VWS V14.01,2013-01-30 00:56:00,
2013-01-29 20:01:00,72.5,65.6,30.02,SE,125,0.0,8.0,79,0.00,,---,0.00,VWS V14.01,2013-01-30 01:01:00,
2013-01-29 20:05:00,72.5,65.6,30.02,SE,125,0.0,3.0,79,0.00,,---,0.00,VWS V14.01,2013-01-30 01:05:00,
2013-01-29 20:06:00,72.5,65.6,30.02,SE,125,0.0,3.0,79,0.00,,---,0.00,VWS V14.01,2013-01-30 01:06:00,
2013-01-29 20:11:00,72.5,65.6,30.02,SE,125,0.0,3.0,79,0.00,,---,0.00,VWS V14.01,2013-01-30 01:11:00,
2013-01-29 20:16:00,72.5,65.6,30.02,SE,125,0.0,5.0,79,0.00,,---,0.00,VWS V14.01,2013-01-30 01:16:00,
2013-01-29 20:21:00,72.3,65.4,30.02,SE,125,0.0,5.0,79,0.00,,---,0.00,VWS V14.01,2013-01-30 01:21:00,
2013-01-29 20:26:00,72.3,65.8,30.02,ESE,122,0.0,7.0,80,0.00,,---,0.00,VWS V14.01,2013-01-30 01:26:00,
2013-01-29 20:31:00,72.1,65.6,30.02,ESE,117,0.0,7.0,80,0.00,,---,0.00,VWS V14.01,2013-01-30 01:31:00,
2013-01-29 20:36:00,72.1,65.6,30.02,ESE,117,0.0,7.0,80,0.00,,---,0.00,VWS V14.01,2013-01-30 01:36:00,
2013-01-29 20:41:00,72.1,65.9,30.02,ESE,117,0.0,7.0,81,0.00,,---,0.00,VWS V14.01,2013-01-30 01:41:00,
2013-01-29 20:46:00,72.1,65.9,30.02,ESE,117,0.0,7.0,81,0.00,,---,0.00,VWS V14.01,2013-01-30 01:46:00,
2013-01-29 20:51:00,72.0,65.9,30.02,ESE,117,4.0,7.0,81,0.00,,---,0.00,VWS V14.01,2013-01-30 01:51:00,
2013-01-29 20:56:00,72.0,65.9,30.02,ESE,117,0.0,7.0,81,0.00,,---,0.00,VWS V14.01,2013-01-30 01:56:00,
2013-01-29 21:01:00,72.0,65.9,30.02,ESE,117,1.0,7.0,81,0.00,,---,0.00,VWS V14.01,2013-01-30 02:01:00,
2013-01-29 21:02:00,72.0,65.9,30.02,ESE,117,0.0,7.0,81,0.00,,---,0.00,VWS V14.01,2013-01-30 02:02:00,
2013-01-29 21:06:00,72.0,66.2,30.02,ESE,117,0.0,4.0,82,0.00,,---,0.00,VWS V14.01,2013-01-30 02:06:00,
2013-01-29 21:07:00,72.0,66.2,30.02,ESE,117,0.0,4.0,82,0.00,,---,0.00,VWS V14.01,2013-01-30 02:07:00,
2013-01-29 21:11:00,72.0,66.2,30.02,ESE,117,0.0,5.0,82,0.00,,---,0.00,VWS V14.01,2013-01-30 02:11:00,
2013-01-29 21:12:00,72.0,66.2,30.02,ESE,117,2.0,5.0,82,0.00,,---,0.00,VWS V14.01,2013-01-30 02:12:00,
2013-01-29 21:16:00,72.0,66.2,30.02,ESE,117,1.0,6.0,82,0.00,,---,0.00,VWS V14.01,2013-01-30 02:16:00,
2013-01-29 21:17:00,72.0,66.2,30.02,ESE,117,0.0,6.0,82,0.00,,---,0.00,VWS V14.01,2013-01-30 02:17:00,
2013-01-29 21:21:00,71.8,66.0,30.02,ESE,117,0.0,6.0,82,0.00,,---,0.00,VWS V14.01,2013-01-30 02:21:00,
2013-01-29 21:22:00,71.8,66.0,30.02,ESE,117,4.0,6.0,82,0.00,,---,0.00,VWS V14.01,2013-01-30 02:22:00,
2013-01-29 21:26:00,71.8,66.4,30.02,ESE,117,3.0,6.0,83,0.00,,---,0.00,VWS V14.01,2013-01-30 02:26:00,
2013-01-29 21:27:00,71.8,66.4,30.02,ESE,117,0.0,6.0,83,0.00,,---,0.00,VWS V14.01,2013-01-30 02:27:00,
2013-01-29 21:31:00,71.8,66.4,30.02,ESE,120,0.0,7.0,83,0.00,,---,0.00,VWS V14.01,2013-01-30 02:31:00,
2013-01-29 21:32:00,71.8,66.4,30.01,ESE,120,5.0,7.0,83,0.00,,---,0.00,VWS V14.01,2013-01-30 02:32:00,
2013-01-29 21:36:00,71.8,66.4,30.01,ESE,109,0.0,7.0,83,0.00,,---,0.00,VWS V14.01,2013-01-30 02:36:00,
2013-01-29 21:37:00,71.8,66.4,30.01,ESE,109,0.0,7.0,83,0.00,,---,0.00,VWS V14.01,2013-01-30 02:37:00,
2013-01-29 21:41:00,71.8,66.4,30.01,SE,138,0.0,7.0,83,0.00,,---,0.00,VWS V14.01,2013-01-30 02:41:00,
2013-01-29 21:42:00,71.8,66.4,30.01,SE,138,0.0,7.0,83,0.00,,---,0.00,VWS V14.01,2013-01-30 02:42:00,
2013-01-29 21:46:00,71.8,66.4,30.01,ESE,123,8.0,8.0,83,0.00,,---,0.00,VWS V14.01,2013-01-30 02:46:00,
2013-01-29 21:47:00,71.8,66.4,30.01,ESE,103,7.0,8.0,83,0.00,,---,0.00,VWS V14.01,2013-01-30 02:47:00,
2013-01-29 21:51:00,72.0,66.6,30.01,ESE,118,9.0,10.0,83,0.00,,---,0.00,VWS V14.01,2013-01-30 02:51:00,
2013-01-29 21:52:00,72.0,66.6,30.01,ESE,113,7.0,10.0,83,0.00,,---,0.00,VWS V14.01,2013-01-30 02:52:00,
2013-01-29 21:56:00,72.0,66.9,30.01,ESE,113,1.0,10.0,84,0.00,,---,0.00,VWS V14.01,2013-01-30 02:56:00,
2013-01-29 21:57:00,72.0,66.9,30.01,ESE,113,0.0,10.0,84,0.00,,---,0.00,VWS V14.01,2013-01-30 02:57:00,
2013-01-29 22:01:00,72.0,66.9,30.01,ESE,112,0.0,10.0,84,0.00,,---,0.00,VWS V14.01,2013-01-30 03:01:00,
2013-01-29 22:02:00,72.0,66.9,30.01,ESE,112,0.0,10.0,84,0.00,,---,0.00,VWS V14.01,2013-01-30 03:02:00,
2013-01-29 22:06:00,72.0,66.9,30.00,ESE,110,4.0,7.0,84,0.00,,---,0.00,VWS V14.01,2013-01-30 03:06:00,
2013-01-29 22:07:00,72.0,66.9,30.00,ESE,110,0.0,7.0,84,0.00,,---,0.00,VWS V14.01,2013-01-30 03:07:00,
2013-01-29 22:11:00,72.0,66.9,30.00,ESE,108,0.0,7.0,84,0.00,,---,0.00,VWS V14.01,2013-01-30 03:11:00,
2013-01-29 22:12:00,72.0,66.9,30.00,ESE,108,0.0,7.0,84,0.00,,---,0.00,VWS V14.01,2013-01-30 03:12:00,
2013-01-29 22:17:00,72.0,66.9,30.00,ESE,122,0.0,11.0,84,0.00,,---,0.00,VWS V14.01,2013-01-30 03:17:00,
2013-01-29 22:22:00,72.0,66.9,30.00,ESE,122,6.0,11.0,84,0.00,,---,0.00,VWS V14.01,2013-01-30 03:22:00,
2013-01-29 22:27:00,72.0,66.9,30.00,ESE,120,6.0,11.0,84,0.00,,---,0.00,VWS V14.01,2013-01-30 03:27:00,
2013-01-29 22:32:00,72.0,66.9,30.00,ESE,113,1.0,11.0,84,0.00,,---,0.00,VWS V14.01,2013-01-30 03:32:00,
2013-01-29 22:37:00,71.8,66.7,30.01,ESE,117,0.0,11.0,84,0.00,,---,0.00,VWS V14.01,2013-01-30 03:37:00,
2013-01-29 22:42:00,71.8,67.1,30.01,ESE,119,6.0,11.0,85,0.00,,---,0.00,VWS V14.01,2013-01-30 03:42:00,
2013-01-29 22:47:00,71.6,66.9,30.01,ESE,118,0.0,11.0,85,0.00,,---,0.00,VWS V14.01,2013-01-30 03:47:00,
2013-01-29 22:48:00,71.6,66.9,30.01,ESE,118,0.0,11.0,85,0.00,,---,0.00,VWS V14.01,2013-01-30 03:48:00,
2013-01-29 22:52:00,71.6,66.9,30.01,ESE,110,0.0,11.0,85,0.00,,---,0.00,VWS V14.01,2013-01-30 03:52:00,
2013-01-29 22:53:00,71.5,66.8,30.01,ESE,110,0.0,11.0,85,0.00,,---,0.00,VWS V14.01,2013-01-30 03:53:00,
2013-01-29 22:57:00,71.5,66.8,30.01,ESE,110,0.0,11.0,85,0.00,,---,0.00,VWS V14.01,2013-01-30 03:57:00,
2013-01-29 22:58:00,71.5,66.8,30.01,ESE,110,0.0,11.0,85,0.00,,---,0.00,VWS V14.01,2013-01-30 03:58:00,
2013-01-29 23:02:00,71.3,66.9,30.01,ESE,113,0.0,11.0,86,0.00,,---,0.00,VWS V14.01,2013-01-30 04:02:00,
2013-01-29 23:03:00,71.3,66.9,30.01,ESE,113,0.0,11.0,86,0.00,,---,0.00,VWS V14.01,2013-01-30 04:03:00,
2013-01-29 23:07:00,71.3,66.9,30.01,ESE,112,0.0,5.0,86,0.00,,---,0.00,VWS V14.01,2013-01-30 04:07:00,
2013-01-29 23:08:00,71.3,66.9,30.01,ESE,112,0.0,5.0,86,0.00,,---,0.00,VWS V14.01,2013-01-30 04:08:00,
2013-01-29 23:12:00,71.1,66.7,30.01,ESE,120,1.0,7.0,86,0.00,,---,0.00,VWS V14.01,2013-01-30 04:12:00,
2013-01-29 23:13:00,71.1,66.7,30.01,ESE,120,0.0,7.0,86,0.00,,---,0.00,VWS V14.01,2013-01-30 04:13:00,
2013-01-29 23:17:00,71.1,67.0,30.01,ESE,120,0.0,7.0,87,0.00,,---,0.00,VWS V14.01,2013-01-30 04:17:00,
2013-01-29 23:18:00,71.1,67.0,30.01,ESE,120,0.0,7.0,87,0.00,,---,0.00,VWS V14.01,2013-01-30 04:18:00,
2013-01-29 23:22:00,70.9,66.8,30.01,ESE,120,0.0,7.0,87,0.00,,---,0.00,VWS V14.01,2013-01-30 04:22:00,
2013-01-29 23:23:00,70.9,66.8,30.01,ESE,120,0.0,7.0,87,0.00,,---,0.00,VWS V14.01,2013-01-30 04:23:00,
2013-01-29 23:27:00,70.8,66.7,30.01,ESE,120,0.0,7.0,87,0.00,,---,0.00,VWS V14.01,2013-01-30 04:27:00,
2013-01-29 23:28:00,70.8,66.7,30.01,ESE,120,0.0,7.0,87,0.00,,---,0.00,VWS V14.01,2013-01-30 04:28:00,
2013-01-29 23:32:00,70.8,66.7,30.01,ESE,120,0.0,7.0,87,0.00,,---,0.00,VWS V14.01,2013-01-30 04:32:00,
2013-01-29 23:33:00,70.8,66.7,30.01,ESE,119,5.0,7.0,87,0.00,,---,0.00,VWS V14.01,2013-01-30 04:33:00,
2013-01-29 23:37:00,70.6,66.9,30.01,ESE,119,0.0,7.0,88,0.00,,---,0.00,VWS V14.01,2013-01-30 04:37:00,
2013-01-29 23:38:00,70.6,66.9,30.01,ESE,119,0.0,7.0,88,0.00,,---,0.00,VWS V14.01,2013-01-30 04:38:00,
2013-01-29 23:42:00,70.4,66.7,30.01,ESE,119,0.0,7.0,88,0.00,,---,0.00,VWS V14.01,2013-01-30 04:42:00,
2013-01-29 23:43:00,70.4,66.7,30.01,ESE,119,0.0,7.0,88,0.00,,---,0.00,VWS V14.01,2013-01-30 04:43:00,
2013-01-29 23:47:00,70.3,66.6,30.01,ESE,119,2.0,7.0,88,0.00,,---,0.00,VWS V14.01,2013-01-30 04:47:00,
2013-01-29 23:48:00,70.3,66.6,30.01,ESE,119,2.0,7.0,88,0.00,,---,0.00,VWS V14.01,2013-01-30 04:48:00,
2013-01-29 23:52:00,70.3,66.6,30.01,ESE,119,0.0,7.0,88,0.00,,---,0.00,VWS V14.01,2013-01-30 04:52:00,
2013-01-29 23:53:00,70.3,66.6,30.01,ESE,119,0.0,7.0,88,0.00,,---,0.00,VWS V14.01,2013-01-30 04:53:00,
2013-01-29 23:57:00,70.1,66.7,30.01,ESE,119,1.0,7.0,89,0.00,,---,0.00,VWS V14.01,2013-01-30 04:57:00,
2013-01-29 23:58:00,70.1,66.7,30.01,ESE,119,2.0,7.0,89,0.00,,---,0.00,VWS V14.01,2013-01-30 04:58:00,